GW6089 Weather Reports


time (UTC)temp
F
wind
direction
speed
knots
gust
knots
rain 1hr
in
rain 24hr
in
rain mn
in
humidity
%
barometer
mb
20260509022406 69 222 2.6 7.8 0.00 0.00 0.00 62 1019.7
20260509022307 69 220 2.6 7.8 0.00 0.00 0.00 62 1019.8
20260509022206 69 224 3.5 7.8 0.00 0.00 0.00 62 1019.6
20260509022106 69 224 3.5 7.8 0.00 0.00 0.00 62 1019.8
20260509022006 69 224 3.5 7.8 0.00 0.00 0.00 62 1019.5
20260509021906 69 224 3.5 7.8 0.00 0.00 0.00 62 1020.0
20260509021806 68 225 3.5 7.8 0.00 0.00 0.00 62 1019.6
20260509021720 68 227 3.5 7.8 0.00 0.00 0.00 62 1019.6
20260509021704 68 228 3.5 7.8 0.00 0.00 0.00 62 1019.9
20260509021606 68 231 2.6 7.8 0.00 0.00 0.00 63 1020.1
20260509021406 68 228 2.6 7.8 0.00 0.00 0.00 63 1019.7
20260509021306 68 230 2.6 7.8 0.00 0.00 0.00 63 1020.0
20260509021205 68 229 2.6 6.1 0.00 0.00 0.00 63 1020.0
20260509021120 68 226 2.6 6.1 0.00 0.00 0.00 63 1020.0
20260509021105 68 227 2.6 6.1 0.00 0.00 0.00 63 1020.0
20260509021020 68 230 2.6 6.1 0.00 0.00 0.00 63 1020.0
20260509021006 68 231 2.6 6.1 0.00 0.00 0.00 63 1020.0
20260509020706 68 245 1.7 6.1 0.00 0.00 0.00 63 1020.1
20260509020606 67 244 1.7 6.1 0.00 0.00 0.00 63 1019.9
20260509020506 67 245 1.7 6.1 0.00 0.00 0.00 63 1019.9
20260509020406 67 257 1.7 5.2 0.00 0.00 0.00 63 1020.1
20260509020320 67 264 1.7 5.2 0.00 0.00 0.00 64 1020.1
20260509020306 67 268 1.7 5.2 0.00 0.00 0.00 64 1020.0
20260509020206 67 282 1.7 7.0 0.00 0.00 0.00 64 1019.9
20260509020119 67 286 1.7 7.0 0.00 0.00 0.00 64 1019.9
20260509020006 67 275 1.7 7.0 0.00 0.00 0.00 64 1019.9
20260509015806 67 276 1.7 7.0 0.00 0.00 0.00 64 1020.1
20260509015705 67 265 1.7 7.0 0.00 0.00 0.00 64 1019.9
20260509015605 67 256 2.6 7.0 0.00 0.00 0.00 64 1020.3
20260509015519 67 259 2.6 7.0 0.00 0.00 0.00 64 1020.3
20260509015505 67 258 2.6 7.0 0.00 0.00 0.00 64 1019.7
20260509015405 67 248 2.6 7.0 0.00 0.00 0.00 64 1020.0
20260509015206 67 241 2.6 7.0 0.00 0.00 0.00 64 1020.1
20260509015105 67 242 2.6 7.0 0.00 0.00 0.00 64 1020.1
20260509015006 67 239 3.5 7.0 0.00 0.00 0.00 64 1020.0
20260509014904 67 234 3.5 7.0 0.00 0.00 0.00 64 1020.3
20260509014805 67 232 3.5 7.0 0.00 0.00 0.00 64 1020.1
20260509014706 67 230 3.5 7.0 0.00 0.00 0.00 64 1020.3
20260509014606 67 232 3.5 7.0 0.00 0.00 0.00 64 1020.3
20260509014505 67 229 3.5 7.0 0.00 0.00 0.00 64 1020.3
20260509014405 67 231 3.5 7.0 0.00 0.00 0.00 65 1020.0
20260509014306 67 226 2.6 7.0 0.00 0.00 0.00 65 1020.3
20260509014206 67 229 2.6 7.0 0.00 0.00 0.00 65 1020.3
20260509014106 67 229 2.6 7.0 0.00 0.00 0.00 65 1020.1
20260509014020 67 230 2.6 7.0 0.00 0.00 0.00 65 1020.1
20260509014006 67 230 2.6 7.0 0.00 0.00 0.00 65 1020.4
20260509013920 67 239 2.6 7.8 0.00 0.00 0.00 65 1020.4
20260509013906 67 239 2.6 7.8 0.00 0.00 0.00 65 1020.0
20260509013606 67 231 2.6 7.8 0.00 0.00 0.00 65 1020.3
20260509013505 67 236 2.6 7.8 0.00 0.00 0.00 65 1020.3
20260509013406 66 242 2.6 7.8 0.00 0.00 0.00 65 1020.3
20260509013306 67 245 2.6 7.8 0.00 0.00 0.00 65 1020.4
20260509013206 67 241 2.6 7.8 0.00 0.00 0.00 65 1020.4
20260509013106 67 233 2.6 11.3 0.00 0.00 0.00 65 1020.6
20260509013006 67 231 2.6 11.3 0.00 0.00 0.00 65 1020.4
20260509012906 67 222 3.5 11.3 0.00 0.00 0.00 65 1020.4
20260509012806 67 225 2.6 11.3 0.00 0.00 0.00 65 1020.5
20260509012705 67 232 2.6 11.3 0.00 0.00 0.00 65 1020.4
20260509012605 67 231 2.6 11.3 0.00 0.00 0.00 66 1020.5
20260509012504 67 232 2.6 11.3 0.00 0.00 0.00 66 1020.5
20260509012406 67 222 2.6 11.3 0.00 0.00 0.00 66 1020.5
20260509012307 67 218 2.6 11.3 0.00 0.00 0.00 65 1020.7
20260509012219 67 213 2.6 11.3 0.00 0.00 0.00 66 1020.7
20260509012206 67 213 2.6 11.3 0.00 0.00 0.00 66 1020.5
20260509012106 67 221 2.6 7.8 0.00 0.00 0.00 66 1020.7
20260509011904 67 211 2.6 7.8 0.00 0.00 0.00 66 1020.7
20260509011821 67 215 2.6 7.8 0.00 0.00 0.00 67 1020.7
20260509011806 67 216 2.6 7.8 0.00 0.00 0.00 67 1020.6
20260509011706 67 213 2.6 7.0 0.00 0.00 0.00 66 1020.6
20260509011521 67 211 2.6 7.0 0.00 0.00 0.00 67 1020.5
20260509011506 67 209 2.6 7.0 0.00 0.00 0.00 67 1020.7
20260509011406 67 213 2.6 7.0 0.00 0.00 0.00 67 1020.7
20260509011205 67 208 1.7 7.0 0.00 0.00 0.00 67 1020.7
20260509011105 67 214 1.7 7.0 0.00 0.00 0.00 67 1020.8
20260509011004 67 218 2.6 7.0 0.00 0.00 0.00 67 1020.7
20260509010906 66 230 2.6 9.6 0.00 0.00 0.00 68 1020.7
20260509010804 66 230 2.6 9.6 0.00 0.00 0.00 68 1020.7
20260509010706 66 224 3.5 9.6 0.00 0.00 0.00 68 1020.6
20260509010620 66 226 3.5 9.6 0.00 0.00 0.00 68 1020.6
20260509010606 66 226 3.5 9.6 0.00 0.00 0.00 68 1020.6
20260509010505 66 222 3.5 9.6 0.00 0.00 0.00 68 1020.8
20260509010305 66 225 3.5 9.6 0.00 0.00 0.00 68 1020.8
20260509010206 66 227 4.3 9.6 0.00 0.00 0.00 68 1020.6
20260509010106 66 222 4.3 9.6 0.00 0.00 0.00 68 1020.8
20260509010020 66 221 4.3 9.6 0.00 0.00 0.00 68 1020.8
20260509010006 66 221 4.3 9.6 0.00 0.00 0.00 68 1020.7
20260509005906 66 214 3.5 9.6 0.00 0.00 0.00 68 1020.8
20260509005706 66 212 3.5 8.7 0.00 0.00 0.00 68 1020.9
20260509005605 66 212 4.3 8.7 0.00 0.00 0.00 68 1020.8
20260509005506 66 215 3.5 8.7 0.00 0.00 0.00 69 1020.6
20260509005406 65 214 3.5 8.7 0.00 0.00 0.00 68 1020.6
20260509005306 65 218 3.5 8.7 0.00 0.00 0.00 68 1020.8
20260509005205 65 217 3.5 7.8 0.00 0.00 0.00 69 1020.6
20260509005105 65 222 3.5 8.7 0.00 0.00 0.00 69 1020.8
20260509005005 65 229 3.5 8.7 0.00 0.00 0.00 69 1020.9
20260509004906 65 236 4.3 8.7 0.00 0.00 0.00 69 1020.7
20260509004806 65 239 4.3 8.7 0.00 0.00 0.00 69 1020.6
20260509004705 65 243 3.5 8.7 0.00 0.00 0.00 69 1020.5
20260509004620 65 243 3.5 8.7 0.00 0.00 0.00 69 1020.5
20260509004605 65 245 3.5 8.7 0.00 0.00 0.00 69 1020.6
20260509004505 65 243 3.5 8.7 0.00 0.00 0.00 69 1020.7
20260509004307 65 242 3.5 8.7 0.00 0.00 0.00 69 1020.6
20260509004206 65 242 3.5 8.7 0.00 0.00 0.00 69 1020.8
20260509004106 65 241 3.5 8.7 0.00 0.00 0.00 70 1020.8
20260509004006 65 241 3.5 8.7 0.00 0.00 0.00 70 1020.7
20260509003905 65 239 3.5 8.7 0.00 0.00 0.00 70 1020.8
20260509003805 64 239 3.5 8.7 0.00 0.00 0.00 70 1020.6
20260509003719 64 241 3.5 8.7 0.00 0.00 0.00 70 1020.6
20260509003706 64 241 3.5 8.7 0.00 0.00 0.00 70 1020.8
20260509003606 64 243 3.5 8.7 0.00 0.00 0.00 70 1020.7
20260509003405 64 243 3.5 8.7 0.00 0.00 0.00 70 1020.9
20260509003320 64 246 3.5 8.7 0.00 0.00 0.00 70 1020.9
20260509003306 64 247 3.5 8.7 0.00 0.00 0.00 70 1020.8
20260509003205 64 246 3.5 8.7 0.00 0.00 0.00 70 1021.0
20260509003006 64 249 2.6 8.7 0.00 0.00 0.00 71 1021.1
20260509002905 64 251 2.6 8.7 0.00 0.00 0.00 71 1020.8
20260509002821 64 247 2.6 8.7 0.00 0.00 0.00 71 1020.8
20260509002805 64 246 2.6 8.7 0.00 0.00 0.00 71 1021.0
20260509002705 64 243 2.6 8.7 0.00 0.00 0.00 71 1021.1
20260509002620 64 242 2.6 8.7 0.00 0.00 0.00 71 1021.1
20260509002521 64 247 2.6 8.7 0.00 0.00 0.00 71 1020.8
20260509002505 64 247 2.6 8.7 0.00 0.00 0.00 71 1020.9
20260509002320 64 245 2.6 8.7 0.00 0.00 0.00 71 1021.1
20260509002220 64 248 2.6 7.8 0.00 0.00 0.00 71 1021.0
20260509002206 64 249 2.6 7.8 0.00 0.00 0.00 71 1021.0
20260509001904 64 245 2.6 7.8 0.00 0.00 0.00 71 1020.8
20260509001806 63 246 2.6 7.8 0.00 0.00 0.00 71 1020.9
20260509001705 63 239 2.6 7.8 0.00 0.00 0.00 71 1020.9
20260509001606 63 237 2.6 7.8 0.00 0.00 0.00 72 1020.9
20260509001505 63 228 1.7 7.8 0.00 0.00 0.00 72 1020.8
20260509001404 63 219 2.6 7.8 0.00 0.00 0.00 72 1020.9
20260509001305 63 209 2.6 7.8 0.00 0.00 0.00 72 1021.0
20260509001206 63 204 2.6 7.8 0.00 0.00 0.00 72 1020.8
20260509001106 63 213 2.6 7.8 0.00 0.00 0.00 72 1021.0
20260509001019 63 214 2.6 7.8 0.00 0.00 0.00 72 1021.0
20260509001005 63 213 2.6 7.8 0.00 0.00 0.00 72 1021.1
20260509000905 62 204 2.6 7.8 0.00 0.00 0.00 72 1021.0
20260509000705 62 192 2.6 7.0 0.00 0.00 0.00 72 1021.1
20260509000620 62 188 2.6 7.0 0.00 0.00 0.00 72 1021.1
20260509000605 62 188 2.6 7.0 0.00 0.00 0.00 72 1021.0
20260509000504 62 187 1.7 7.0 0.00 0.00 0.00 72 1020.9
20260509000305 62 224 1.7 7.0 0.00 0.00 0.00 73 1021.1
20260509000206 62 228 1.7 7.0 0.00 0.00 0.00 73 1020.9
20260509000106 62 219 1.7 6.1 0.00 0.00 0.00 73 1021.0
20260509000006 62 230 1.7 6.1 0.00 0.00 0.00 73 1020.9
20260508235906 62 244 1.7 6.1 0.00 0.00 0.00 73 1020.9
20260508235805 62 274 1.7 5.2 0.00 0.00 0.00 73 1021.1
20260508235721 62 275 1.7 5.2 0.00 0.00 0.00 73 1021.1
20260508235706 62 274 1.7 5.2 0.00 0.00 0.00 73 1021.0
20260508235607 62 272 1.7 5.2 0.00 0.00 0.00 73 1021.1
20260508235406 62 255 1.7 5.2 0.00 0.00 0.00 73 1020.9
20260508235307 61 255 1.7 5.2 0.00 0.00 0.00 73 1020.8
20260508235205 61 264 1.7 5.2 0.00 0.00 0.00 73 1020.9
20260508235106 61 258 1.7 6.1 0.00 0.00 0.00 74 1021.0
20260508235006 61 257 1.7 6.1 0.00 0.00 0.00 74 1020.9
20260508234906 61 264 1.7 6.1 0.00 0.00 0.00 74 1021.0
20260508234818 61 264 1.7 6.1 0.00 0.00 0.00 74 1021.0
20260508234806 61 265 1.7 6.1 0.00 0.00 0.00 74 1021.0
20260508234719 61 265 1.7 6.1 0.00 0.00 0.00 74 1021.0
20260508234706 61 267 1.7 6.1 0.00 0.00 0.00 74 1021.0
20260508234419 61 279 1.7 6.1 0.00 0.00 0.00 74 1020.9
20260508234405 61 280 1.7 6.1 0.00 0.00 0.00 74 1020.9
20260508234306 61 279 1.7 6.1 0.00 0.00 0.00 74 1020.7
20260508234220 61 276 1.7 6.1 0.00 0.00 0.00 74 1020.7
20260508234105 61 281 1.7 5.2 0.00 0.00 0.00 74 1020.8
20260508233920 60 247 1.7 5.2 0.00 0.00 0.00 74 1021.2
20260508233905 60 238 1.7 8.7 0.00 0.00 0.00 74 1021.0
20260508233806 60 222 1.7 8.7 0.00 0.00 0.00 75 1020.8
20260508233619 60 206 1.7 8.7 0.00 0.00 0.00 74 1020.8
20260508233606 60 207 1.7 8.7 0.00 0.00 0.00 74 1021.0
20260508233505 60 193 1.7 8.7 0.00 0.00 0.00 75 1020.9
20260508233306 60 182 1.7 8.7 0.00 0.00 0.00 75 1020.9
20260508233206 60 185 1.7 8.7 0.00 0.00 0.00 75 1020.9
20260508233106 60 185 1.7 8.7 0.00 0.00 0.00 75 1020.8
20260508232905 60 179 0.9 8.7 0.00 0.00 0.00 76 1020.7
20260508232805 60 164 0.9 3.5 0.00 0.00 0.00 75 1020.9
20260508232705 60 163 0.9 3.5 0.00 0.00 0.00 75 1020.8
20260508232605 60 173 0.9 3.5 0.00 0.00 0.00 75 1020.9
20260508232505 59 183 0.9 3.5 0.00 0.00 0.00 76 1021.0
20260508232406 59 188 0.9 3.5 0.00 0.00 0.00 76 1021.1
20260508232307 59 193 0.9 3.5 0.00 0.00 0.00 76 1021.0
20260508232206 59 196 0.9 3.5 0.00 0.00 0.00 76 1021.0
20260508232105 59 210 0.9 3.5 0.00 0.00 0.00 76 1020.9
20260508232006 59 231 0.9 3.5 0.00 0.00 0.00 76 1021.1
20260508231920 59 235 1.7 5.2 0.00 0.00 0.00 76 1021.1
20260508231905 59 234 1.7 5.2 0.00 0.00 0.00 76 1021.0
20260508231806 59 243 1.7 5.2 0.00 0.00 0.00 76 1021.0
20260508231606 59 246 1.7 6.1 0.00 0.00 0.00 76 1021.0
20260508231506 59 239 1.7 6.1 0.00 0.00 0.00 76 1020.8
20260508231405 58 234 1.7 6.1 0.00 0.00 0.00 76 1021.0
20260508231306 58 230 1.7 6.1 0.00 0.00 0.00 76 1021.0
20260508231220 58 232 1.7 6.1 0.00 0.00 0.00 76 1021.0
20260508231205 58 235 1.7 6.1 0.00 0.00 0.00 76 1020.7
20260508231106 58 232 1.7 6.1 0.00 0.00 0.00 77 1020.9
20260508231019 58 230 1.7 6.1 0.00 0.00 0.00 77 1020.9
20260508230905 58 242 1.7 6.1 0.00 0.00 0.00 77 1020.8
20260508230820 58 244 1.7 6.1 0.00 0.00 0.00 77 1020.8
20260508230704 58 240 1.7 6.1 0.00 0.00 0.00 77 1020.7
20260508230520 58 251 1.7 6.1 0.00 0.00 0.00 77 1020.8
20260508230504 58 253 1.7 6.1 0.00 0.00 0.00 77 1020.8
20260508230405 57 256 1.7 6.1 0.00 0.00 0.00 77 1020.7
20260508230319 57 261 1.7 6.1 0.00 0.00 0.00 77 1020.7
20260508230205 57 265 1.7 6.1 0.00 0.00 0.00 77 1020.6
20260508230006 57 260 1.7 6.1 0.00 0.00 0.00 77 1020.9
20260508225906 57 254 1.7 6.1 0.00 0.00 0.00 77 1020.9
20260508225806 57 254 1.7 6.1 0.00 0.00 0.00 77 1020.9
20260508225705 57 256 1.7 6.1 0.00 0.00 0.00 77 1020.7
20260508225619 57 260 0.9 3.5 0.00 0.00 0.00 77 1020.7
20260508225606 57 259 0.9 3.5 0.00 0.00 0.00 77 1020.7
20260508225522 57 260 0.9 3.5 0.00 0.00 0.00 78 1020.7
20260508225505 57 260 0.9 3.5 0.00 0.00 0.00 78 1020.8
20260508225321 56 265 0.9 3.5 0.00 0.00 0.00 78 1020.7
20260508225207 56 253 0.9 3.5 0.00 0.00 0.00 78 1020.8
20260508225006 56 250 0.9 1.7 0.00 0.00 0.00 78 1020.8
20260508224906 56 250 0.0 1.7 0.00 0.00 0.00 78 1020.9
20260508224805 56 250 0.0 1.7 0.00 0.00 0.00 78 1020.5
20260508224706 56 250 0.0 1.7 0.00 0.00 0.00 78 1020.9
20260508224621 56 250 0.0 1.7 0.00 0.00 0.00 78 1020.9
20260508224606 56 250 0.0 1.7 0.00 0.00 0.00 78 1020.6
20260508224520 56 250 0.0 1.7 0.00 0.00 0.00 78 1020.6
20260508224505 56 250 0.0 1.7 0.00 0.00 0.00 78 1020.6
20260508224205 56 250 0.0 1.7 0.00 0.00 0.00 78 1020.7
20260508224106 55 250 0.0 2.6 0.00 0.00 0.00 79 1020.7
20260508224006 55 245 0.9 5.2 0.00 0.00 0.00 79 1020.5
20260508223906 55 243 0.9 5.2 0.00 0.00 0.00 79 1020.6
20260508223806 55 241 0.9 5.2 0.00 0.00 0.00 79 1020.6
20260508223706 55 239 0.9 5.2 0.00 0.00 0.00 79 1020.8
20260508223605 55 238 0.9 5.2 0.00 0.00 0.00 79 1020.7
20260508223504 55 237 0.9 5.2 0.00 0.00 0.00 79 1020.5
20260508223405 55 236 0.9 5.2 0.00 0.00 0.00 79 1020.7
20260508223321 55 236 0.9 5.2 0.00 0.00 0.00 79 1020.7
20260508223305 55 236 0.9 5.2 0.00 0.00 0.00 79 1020.5
20260508223206 55 234 0.9 5.2 0.00 0.00 0.00 79 1020.8
20260508223007 54 231 0.9 2.6 0.00 0.00 0.00 79 1020.7
20260508222906 54 230 0.9 2.6 0.00 0.00 0.00 79 1020.7
20260508222820 54 230 0.9 2.6 0.00 0.00 0.00 79 1020.7
20260508222806 54 230 0.9 2.6 0.00 0.00 0.00 79 1020.4
20260508222720 54 230 0.9 2.6 0.00 0.00 0.00 79 1020.4
20260508222704 54 230 0.9 2.6 0.00 0.00 0.00 79 1020.5
20260508222405 54 230 0.9 2.6 0.00 0.00 0.00 79 1020.6
20260508222306 54 230 0.9 2.6 0.00 0.00 0.00 79 1020.1
20260508222205 54 230 0.9 2.6 0.00 0.00 0.00 79 1020.3
20260508222106 54 230 0.9 2.6 0.00 0.00 0.00 79 1020.3
20260508222006 54 229 0.9 2.6 0.00 0.00 0.00 79 1020.1
20260508221906 53 229 0.9 2.6 0.00 0.00 0.00 79 1020.3
20260508221804 53 229 0.9 2.6 0.00 0.00 0.00 79 1020.3
20260508221706 53 229 0.0 1.7 0.00 0.00 0.00 79 1020.3
20260508221605 53 229 0.0 1.7 0.00 0.00 0.00 79 1020.0
20260508221505 53 229 0.0 1.7 0.00 0.00 0.00 79 1020.1
20260508221405 53 229 0.0 0.9 0.00 0.00 0.00 79 1020.1
20260508221306 53 229 0.0 1.7 0.00 0.00 0.00 79 1020.1
20260508221206 53 229 0.0 1.7 0.00 0.00 0.00 79 1020.0
20260508221105 53 229 0.0 1.7 0.00 0.00 0.00 79 1020.1
20260508221019 53 229 0.9 1.7 0.00 0.00 0.00 79 1020.1
20260508221006 53 229 0.9 1.7 0.00 0.00 0.00 79 1020.0
20260508220905 53 229 0.9 1.7 0.00 0.00 0.00 79 1020.0
20260508220706 53 229 0.9 1.7 0.00 0.00 0.00 79 1019.8
20260508220606 53 229 0.0 1.7 0.00 0.00 0.00 79 1020.0
20260508220506 53 229 0.0 1.7 0.00 0.00 0.00 79 1019.8
20260508220420 53 229 0.0 1.7 0.00 0.00 0.00 79 1019.8
20260508220406 53 229 0.0 1.7 0.00 0.00 0.00 79 1020.0
20260508220305 53 229 0.0 1.7 0.00 0.00 0.00 79 1020.1
20260508220105 52 229 0.0 1.7 0.00 0.00 0.00 79 1019.8
20260508220004 52 229 0.0 0.9 0.00 0.00 0.00 79 1019.7
20260508215906 52 229 0.0 0.9 0.00 0.00 0.00 79 1019.6
20260508215806 52 229 0.0 0.9 0.00 0.00 0.00 79 1020.0
20260508215706 52 229 0.0 0.9 0.00 0.00 0.00 79 1019.8
20260508215606 52 229 0.0 0.9 0.00 0.00 0.00 79 1019.7
20260508215504 52 229 0.0 0.9 0.00 0.00 0.00 79 1019.9
20260508215406 52 229 0.0 0.9 0.00 0.00 0.00 79 1020.0
20260508215307 52 229 0.0 0.9 0.00 0.00 0.00 79 1020.1
20260508215206 52 229 0.0 0.9 0.00 0.00 0.00 79 1020.0
20260508215104 52 229 0.0 1.7 0.00 0.00 0.00 79 1019.8
20260508215006 52 222 0.0 1.7 0.00 0.00 0.00 79 1019.9
20260508214904 52 221 0.0 1.7 0.00 0.00 0.00 79 1019.8
20260508214806 52 220 0.0 1.7 0.00 0.00 0.00 79 1020.0
20260508214706 52 213 0.0 1.7 0.00 0.00 0.00 79 1019.8
20260508214606 52 210 0.0 1.7 0.00 0.00 0.00 79 1019.8
20260508214506 52 209 0.0 1.7 0.00 0.00 0.00 79 1019.8
20260508214406 52 207 0.0 1.7 0.00 0.00 0.00 79 1019.9
20260508214319 52 203 0.0 1.7 0.00 0.00 0.00 79 1019.9
20260508214306 52 202 0.0 1.7 0.00 0.00 0.00 79 1019.8
20260508214206 51 198 0.0 1.7 0.00 0.00 0.00 79 1019.8
20260508214004 51 185 0.0 0.9 0.00 0.00 0.00 79 1019.6
20260508213906 51 185 0.0 0.9 0.00 0.00 0.00 79 1020.0
20260508213805 51 185 0.0 0.9 0.00 0.00 0.00 79 1019.9
20260508213720 51 185 0.0 0.9 0.00 0.00 0.00 79 1019.9
20260508213704 51 185 0.0 0.9 0.00 0.00 0.00 79 1019.7
20260508213619 51 185 0.0 0.9 0.00 0.00 0.00 79 1019.7
20260508213605 51 185 0.0 0.9 0.00 0.00 0.00 79 1019.6
20260508213420 51 185 0.0 0.9 0.00 0.00 0.00 79 1019.7
20260508213306 51 185 0.0 0.9 0.00 0.00 0.00 79 1019.8
20260508213105 51 185 0.0 0.9 0.00 0.00 0.00 79 1019.7
20260508213005 51 185 0.0 0.9 0.00 0.00 0.00 79 1019.9
20260508212921 51 185 0.0 0.9 0.00 0.00 0.00 79 1019.9
20260508212906 51 185 0.0 0.9 0.00 0.00 0.00 79 1019.8
20260508212806 51 185 0.0 0.9 0.00 0.00 0.00 79 1019.7
20260508212605 51 185 0.0 0.9 0.00 0.00 0.00 79 1019.6
20260508212519 51 185 0.0 0.9 0.00 0.00 0.00 79 1019.6
20260508212506 51 0 0.0 0.0 0.00 0.00 0.00 79 1019.8
20260508212206 51 0 0.0 0.0 0.00 0.00 0.00 79 1019.6
20260508212120 51 0 0.0 0.0 0.00 0.00 0.00 79 1019.6
20260508212106 51 0 0.0 0.0 0.00 0.00 0.00 79 1019.5
20260508212006 51 0 0.0 0.0 0.00 0.00 0.00 79 1019.6
20260508211806 51 197 0.0 1.7 0.00 0.00 0.00 79 1019.7
20260508211707 51 197 0.0 1.7 0.00 0.00 0.00 79 1019.6
20260508211606 51 197 0.0 1.7 0.00 0.00 0.00 79 1019.7
20260508211505 50 197 0.0 1.7 0.00 0.00 0.00 79 1019.5
20260508211406 50 197 0.0 1.7 0.00 0.00 0.00 79 1019.7
20260508211306 50 197 0.0 3.5 0.00 0.00 0.00 79 1019.5
20260508211205 50 194 0.9 3.5 0.00 0.00 0.00 79 1019.4
20260508211120 50 193 0.9 3.5 0.00 0.00 0.00 79 1019.4
20260508211105 50 193 0.9 3.5 0.00 0.00 0.00 79 1019.6
20260508211005 50 192 0.9 3.5 0.00 0.00 0.00 79 1019.5
20260508210919 50 192 0.9 3.5 0.00 0.00 0.00 79 1019.5
20260508210805 50 190 0.9 3.5 0.00 0.00 0.00 79 1019.4
20260508210605 50 189 0.9 3.5 0.00 0.00 0.00 79 1019.7
20260508210506 50 188 0.9 3.5 0.00 0.00 0.00 79 1019.5
20260508210406 50 187 0.9 3.5 0.00 0.00 0.00 79 1019.5
20260508210305 50 186 0.9 3.5 0.00 0.00 0.00 79 1019.5
20260508210206 50 186 0.9 2.6 0.00 0.00 0.00 79 1019.6
20260508210106 49 185 0.9 2.6 0.00 0.00 0.00 79 1019.8
20260508210006 49 185 0.9 2.6 0.00 0.00 0.00 79 1019.3
20260508205906 49 185 0.9 2.6 0.00 0.00 0.00 79 1019.7
20260508205805 49 185 0.9 2.6 0.00 0.00 0.00 79 1019.4
20260508205720 49 185 0.9 2.6 0.00 0.00 0.00 79 1019.4
20260508205705 49 185 0.9 1.7 0.00 0.00 0.00 79 1019.7
20260508205621 49 185 0.9 1.7 0.00 0.00 0.00 79 1019.7
20260508205605 49 185 0.9 1.7 0.00 0.00 0.00 79 1019.8
20260508205521 49 185 0.9 1.7 0.00 0.00 0.00 79 1019.8
20260508205206 49 185 0.9 0.9 0.00 0.00 0.00 79 1019.6
20260508205120 49 185 0.9 0.9 0.00 0.00 0.00 79 1019.6
20260508205105 49 185 0.9 0.9 0.00 0.00 0.00 79 1019.5
20260508205005 49 185 0.9 0.9 0.00 0.00 0.00 79 1019.5
20260508204805 49 185 0.9 0.9 0.00 0.00 0.00 79 1019.4
20260508204705 49 185 0.9 0.9 0.00 0.00 0.00 79 1019.1
20260508204606 49 185 0.9 0.9 0.00 0.00 0.00 79 1019.3
20260508204506 49 185 0.9 0.9 0.00 0.00 0.00 79 1019.3
20260508204405 49 185 0.9 0.9 0.00 0.00 0.00 78 1019.2
20260508204306 49 185 0.9 0.9 0.00 0.00 0.00 78 1019.3
20260508204221 49 185 0.9 0.9 0.00 0.00 0.00 78 1019.3
20260508204206 49 185 0.9 0.9 0.00 0.00 0.00 78 1019.1
20260508204106 49 185 0.9 0.9 0.00 0.00 0.00 78 1019.1
20260508203906 49 185 0.0 0.9 0.00 0.00 0.00 78 1019.3
20260508203806 49 185 0.0 0.9 0.00 0.00 0.00 78 1019.2
20260508203721 49 185 0.0 0.9 0.00 0.00 0.00 78 1019.2
20260508203705 49 185 0.0 0.9 0.00 0.00 0.00 78 1019.1
20260508203605 49 185 0.0 0.9 0.00 0.00 0.00 78 1019.2
20260508203405 49 185 0.0 0.9 0.00 0.00 0.00 78 1019.2
20260508203305 49 0 0.0 0.0 0.00 0.00 0.00 78 1019.1
20260508203205 49 0 0.0 0.0 0.00 0.00 0.00 78 1019.2
20260508203104 49 0 0.0 0.0 0.00 0.00 0.00 78 1019.0
20260508203006 49 0 0.0 0.0 0.00 0.00 0.00 78 1018.8
20260508202906 49 0 0.0 0.0 0.00 0.00 0.00 78 1019.1
20260508202806 49 0 0.0 0.0 0.00 0.00 0.00 78 1019.1
20260508202705 49 0 0.0 0.0 0.00 0.00 0.00 78 1019.1
20260508202606 49 0 0.0 0.0 0.00 0.00 0.00 78 1019.1
20260508202521 49 0 0.0 0.0 0.00 0.00 0.00 78 1019.1
20260508202506 49 0 0.0 0.0 0.00 0.00 0.00 78 1019.0
20260508202406 49 0 0.0 0.0 0.00 0.00 0.00 78 1018.8
20260508202320 49 0 0.0 0.0 0.00 0.00 0.00 78 1018.8
20260508202205 49 0 0.0 0.0 0.00 0.00 0.00 78 1019.1
20260508202119 49 0 0.0 0.0 0.00 0.00 0.00 78 1019.1
20260508202004 49 0 0.0 0.0 0.00 0.00 0.00 78 1019.0
20260508201805 49 0 0.0 0.0 0.00 0.00 0.00 78 1018.8
20260508201705 49 0 0.0 0.0 0.00 0.00 0.00 78 1019.0
20260508201606 49 0 0.0 0.0 0.00 0.00 0.00 78 1018.9
20260508201506 49 0 0.0 0.0 0.00 0.00 0.00 78 1018.8
20260508201405 49 0 0.0 0.0 0.00 0.00 0.00 78 1018.7
20260508201305 49 0 0.0 0.0 0.00 0.00 0.00 78 1018.8
20260508201205 49 0 0.0 0.0 0.00 0.00 0.00 78 1018.7
20260508201119 49 185 0.0 0.9 0.00 0.00 0.00 78 1018.7
20260508201105 49 185 0.0 0.9 0.00 0.00 0.00 78 1018.7
20260508201004 49 185 0.0 0.9 0.00 0.00 0.00 78 1018.8
20260508200918 49 185 0.0 0.9 0.00 0.00 0.00 78 1018.8
20260508200805 49 185 0.0 0.9 0.00 0.00 0.00 78 1018.7
20260508200605 49 185 0.0 0.9 0.00 0.00 0.00 78 1018.9
20260508200505 49 185 0.0 0.9 0.00 0.00 0.00 78 1018.6
20260508200404 49 185 0.0 0.9 0.00 0.00 0.00 78 1018.6
20260508200305 49 185 0.0 0.9 0.00 0.00 0.00 78 1018.8
20260508200205 49 185 0.0 0.9 0.00 0.00 0.00 78 1018.6
20260508200105 49 185 0.0 0.9 0.00 0.00 0.00 78 1018.8
20260508200004 49 185 0.0 0.9 0.00 0.00 0.00 78 1018.7
20260508195906 49 185 0.0 0.9 0.00 0.00 0.00 78 1018.5
20260508195806 49 185 0.0 0.9 0.00 0.00 0.00 78 1018.5
20260508195705 49 185 0.9 0.9 0.00 0.00 0.00 78 1018.6
20260508195620 49 185 0.9 1.7 0.00 0.00 0.00 78 1018.6
20260508195606 49 185 0.9 1.7 0.00 0.00 0.00 78 1018.8
20260508195506 49 185 0.9 1.7 0.00 0.00 0.00 78 1018.7
20260508195306 49 185 0.9 1.7 0.00 0.00 0.00 78 1018.7
20260508195205 49 185 0.9 1.7 0.00 0.00 0.00 78 1018.6
20260508195106 49 185 0.9 1.7 0.00 0.00 0.00 78 1018.6
20260508195005 49 185 0.9 1.7 0.00 0.00 0.00 78 1018.7
20260508194906 49 185 0.9 1.7 0.00 0.00 0.00 78 1018.6
20260508194805 49 185 0.9 1.7 0.00 0.00 0.00 78 1018.5
20260508194705 49 185 0.9 1.7 0.00 0.00 0.00 78 1018.6
20260508194605 49 185 0.9 1.7 0.00 0.00 0.00 78 1018.4
20260508194504 49 184 0.9 2.6 0.00 0.00 0.00 78 1018.5
20260508194405 49 184 0.9 2.6 0.00 0.00 0.00 78 1018.6
20260508194305 49 184 0.9 2.6 0.00 0.00 0.00 78 1018.6
20260508194205 49 183 0.9 2.6 0.00 0.00 0.00 78 1018.6
20260508194105 49 183 0.9 2.6 0.00 0.00 0.00 78 1018.6
20260508194006 49 183 0.9 2.6 0.00 0.00 0.00 78 1018.5
20260508193906 49 182 0.9 2.6 0.00 0.00 0.00 78 1018.3
20260508193805 49 182 0.9 2.6 0.00 0.00 0.00 78 1018.3
20260508193706 49 182 0.9 2.6 0.00 0.00 0.00 78 1018.1
20260508193604 49 181 0.9 2.6 0.00 0.00 0.00 78 1018.4
20260508193506 49 181 0.9 1.7 0.00 0.00 0.00 78 1018.3
20260508193406 49 181 0.9 1.7 0.00 0.00 0.00 78 1018.2
20260508193305 49 181 0.9 1.7 0.00 0.00 0.00 78 1018.5
20260508193205 49 180 0.9 3.5 0.00 0.00 0.00 78 1018.3
20260508193106 49 176 0.9 3.5 0.00 0.00 0.00 78 1018.5
20260508193006 49 171 0.9 3.5 0.00 0.00 0.00 78 1018.2
20260508192906 49 167 0.9 3.5 0.00 0.00 0.00 78 1018.3
20260508192807 49 161 0.9 3.5 0.00 0.00 0.00 78 1018.4
20260508192706 49 158 0.9 3.5 0.00 0.00 0.00 78 1018.4
20260508192606 49 155 0.9 3.5 0.00 0.00 0.00 78 1018.2
20260508192506 49 154 0.9 3.5 0.00 0.00 0.00 78 1018.0
20260508192406 49 149 0.9 3.5 0.00 0.00 0.00 78 1018.5
20260508192306 49 145 0.9 3.5 0.00 0.00 0.00 78 1018.4
20260508192221 49 141 0.9 3.5 0.00 0.00 0.00 78 1018.4
20260508192205 49 140 0.9 2.6 0.00 0.00 0.00 78 1018.2
20260508192105 49 139 0.9 2.6 0.00 0.00 0.00 78 1018.2
20260508191906 49 136 0.9 2.6 0.00 0.00 0.00 78 1018.4
20260508191804 49 134 0.9 2.6 0.00 0.00 0.00 78 1018.3
20260508191706 49 133 0.9 2.6 0.00 0.00 0.00 78 1018.0
20260508191606 49 130 0.9 1.7 0.00 0.00 0.00 78 1018.3
20260508191506 49 129 0.9 1.7 0.00 0.00 0.00 78 1018.3
20260508191405 49 127 0.9 1.7 0.00 0.00 0.00 78 1018.3
20260508191305 49 125 0.9 1.7 0.00 0.00 0.00 78 1018.0
20260508191207 49 124 0.9 1.7 0.00 0.00 0.00 78 1018.3
20260508191121 49 122 0.9 1.7 0.00 0.00 0.00 78 1018.3
20260508191105 49 122 0.9 1.7 0.00 0.00 0.00 78 1018.1
20260508191006 49 119 0.9 1.7 0.00 0.00 0.00 77 1018.1
20260508190806 49 119 0.9 1.7 0.00 0.00 0.00 77 1018.1
20260508190706 49 119 0.9 1.7 0.00 0.00 0.00 77 1018.0
20260508190605 49 119 0.9 0.9 0.00 0.00 0.00 77 1018.0
20260508190506 49 119 0.9 0.9 0.00 0.00 0.00 77 1018.4
20260508190405 49 119 0.9 0.9 0.00 0.00 0.00 77 1018.2
20260508190306 49 119 0.9 0.9 0.00 0.00 0.00 77 1018.0
20260508190206 49 119 0.9 0.9 0.00 0.00 0.00 77 1018.0
20260508190105 49 119 0.9 1.7 0.00 0.00 0.00 77 1018.0
20260508190005 49 119 0.9 1.7 0.00 0.00 0.00 77 1018.2
20260508185905 49 119 0.9 1.7 0.00 0.00 0.00 77 1018.2
20260508185805 49 119 0.9 1.7 0.00 0.00 0.00 77 1018.1
20260508185704 49 119 0.9 1.7 0.00 0.00 0.00 77 1018.0
20260508185606 49 119 0.9 1.7 0.00 0.00 0.00 77 1018.0
20260508185506 49 119 0.9 1.7 0.00 0.00 0.00 77 1018.0
20260508185306 49 119 0.9 1.7 0.00 0.00 0.00 77 1018.2
20260508185206 49 119 0.9 1.7 0.00 0.00 0.00 77 1017.9
20260508185106 49 119 0.9 1.7 0.00 0.00 0.00 77 1017.9
20260508185005 49 119 0.9 2.6 0.00 0.00 0.00 77 1017.9
20260508184906 49 119 0.9 2.6 0.00 0.00 0.00 77 1017.9
20260508184806 49 119 0.9 2.6 0.00 0.00 0.00 77 1018.0
20260508184719 49 119 0.9 2.6 0.00 0.00 0.00 77 1018.0
20260508184605 49 119 0.9 2.6 0.00 0.00 0.00 77 1017.9
20260508184421 49 119 0.9 2.6 0.00 0.00 0.00 77 1018.0
20260508184407 49 119 0.9 2.6 0.00 0.00 0.00 77 1017.8
20260508184306 49 119 0.9 2.6 0.00 0.00 0.00 77 1017.8
20260508184106 49 118 0.9 2.6 0.00 0.00 0.00 77 1017.8
20260508184006 49 118 0.0 0.9 0.00 0.00 0.00 77 1017.9
20260508183920 49 118 0.0 0.9 0.00 0.00 0.00 77 1017.9
20260508183906 49 118 0.0 0.9 0.00 0.00 0.00 77 1017.8
20260508183806 49 118 0.0 0.9 0.00 0.00 0.00 77 1018.0
20260508183721 49 118 0.0 0.9 0.00 0.00 0.00 77 1018.0
20260508183604 49 118 0.0 0.9 0.00 0.00 0.00 77 1017.8
20260508183406 49 118 0.0 0.9 0.00 0.00 0.00 77 1018.0
20260508183306 49 118 0.0 0.9 0.00 0.00 0.00 77 1018.0
20260508183206 49 0 0.0 0.0 0.00 0.00 0.00 77 1018.0
20260508183106 49 0 0.0 0.0 0.00 0.00 0.00 77 1017.8
20260508183006 49 0 0.0 0.0 0.00 0.00 0.00 77 1018.0
20260508182905 49 0 0.0 0.0 0.00 0.00 0.00 77 1017.8
20260508182805 49 0 0.0 0.0 0.00 0.00 0.00 77 1017.9
20260508182706 49 0 0.0 0.0 0.00 0.00 0.00 77 1017.8
20260508182606 49 0 0.0 0.0 0.00 0.00 0.00 77 1017.8
20260508182505 49 118 0.0 0.9 0.00 0.00 0.00 77 1017.9
20260508182405 49 118 0.0 0.9 0.00 0.00 0.00 77 1018.0
20260508182306 49 118 0.0 0.9 0.00 0.00 0.00 77 1017.9
20260508182204 49 118 0.0 0.9 0.00 0.00 0.00 77 1017.9
20260508182104 49 118 0.0 0.9 0.00 0.00 0.00 77 1018.0
20260508182005 49 118 0.0 0.9 0.00 0.00 0.00 77 1017.9
20260508181905 49 118 0.0 0.9 0.00 0.00 0.00 77 1018.0
20260508181806 49 118 0.0 0.9 0.00 0.00 0.00 77 1017.9
20260508181706 49 118 0.0 0.9 0.00 0.00 0.00 77 1017.9
20260508181606 49 118 0.0 0.9 0.00 0.00 0.00 77 1017.9
20260508181506 49 118 0.0 0.9 0.00 0.00 0.00 77 1017.7
20260508181406 49 118 0.0 0.9 0.00 0.00 0.00 77 1017.8
20260508181319 49 118 0.0 0.9 0.00 0.00 0.00 77 1017.8
20260508181306 49 118 0.0 0.9 0.00 0.00 0.00 77 1017.9
20260508181205 49 118 0.0 0.9 0.00 0.00 0.00 77 1017.8
20260508181006 49 118 0.0 0.9 0.00 0.00 0.00 77 1017.8
20260508180905 49 118 0.0 0.9 0.00 0.00 0.00 77 1017.8
20260508180820 49 118 0.0 0.9 0.00 0.00 0.00 77 1017.8
20260508180806 49 118 0.0 0.9 0.00 0.00 0.00 77 1018.0
20260508180706 49 118 0.0 0.9 0.00 0.00 0.00 77 1017.6
20260508180505 49 0 0.0 0.0 0.00 0.00 0.00 77 1017.8
20260508180406 49 0 0.0 0.0 0.00 0.00 0.00 77 1017.7
20260508180305 49 118 0.0 0.9 0.00 0.00 0.00 77 1017.7
20260508180205 49 118 0.0 0.9 0.00 0.00 0.00 77 1017.8
20260508180105 49 119 0.0 1.7 0.00 0.00 0.00 77 1017.7
20260508180021 49 118 0.0 1.7 0.00 0.00 0.00 76 1017.7
20260508180006 49 118 0.0 1.7 0.00 0.00 0.00 76 1017.8
20260508175905 49 118 0.0 1.7 0.00 0.00 0.00 77 1017.8
20260508175706 49 118 0.0 1.7 0.00 0.00 0.00 76 1017.7
20260508175605 49 118 0.0 1.7 0.00 0.00 0.00 76 1017.7
20260508175505 49 118 0.9 1.7 0.00 0.00 0.00 76 1017.7
20260508175306 49 118 0.9 1.7 0.00 0.00 0.00 76 1017.8
20260508175220 49 118 0.0 1.7 0.00 0.00 0.00 76 1017.8
20260508175205 49 118 0.0 1.7 0.00 0.00 0.00 76 1017.7
20260508175104 49 118 0.0 0.9 0.00 0.00 0.00 76 1017.7
20260508175019 49 118 0.0 0.9 0.00 0.00 0.00 76 1017.7
20260508174919 49 118 0.0 0.9 0.00 0.00 0.00 76 1017.6
20260508174906 49 118 0.0 0.9 0.00 0.00 0.00 76 1017.8
20260508174605 49 118 0.0 0.9 0.00 0.00 0.00 76 1017.6
20260508174505 49 118 0.0 0.9 0.00 0.00 0.00 76 1017.6
20260508174405 49 118 0.0 0.9 0.00 0.00 0.00 76 1017.7
20260508174304 49 118 0.0 0.9 0.00 0.00 0.00 76 1017.7
20260508174206 49 118 0.0 0.9 0.00 0.00 0.00 76 1017.5
20260508174005 49 118 0.0 0.9 0.00 0.00 0.00 76 1017.5
20260508173905 49 118 0.0 0.9 0.00 0.00 0.00 76 1017.6
20260508173805 49 118 0.0 0.9 0.00 0.00 0.00 76 1017.6
20260508173705 49 118 0.0 1.7 0.00 0.00 0.00 76 1017.6
20260508173620 49 118 0.0 1.7 0.00 0.00 0.00 76 1017.6
20260508173505 49 118 0.9 1.7 0.00 0.00 0.00 76 1017.5
20260508173321 49 117 0.9 1.7 0.00 0.00 0.00 76 1017.7
20260508173306 49 117 0.9 1.7 0.00 0.00 0.00 76 1017.5
20260508173206 49 117 0.9 1.7 0.00 0.00 0.00 76 1017.6
20260508173004 49 116 0.9 1.7 0.00 0.00 0.00 76 1017.5
20260508172906 49 116 0.9 1.7 0.00 0.00 0.00 76 1017.7
20260508172817 49 115 0.9 1.7 0.00 0.00 0.00 76 1017.7
20260508172706 49 115 0.9 1.7 0.00 0.00 0.00 76 1017.6
20260508172606 49 114 0.9 1.7 0.00 0.00 0.00 76 1017.7
20260508172507 49 114 0.9 1.7 0.00 0.00 0.00 76 1017.7
20260508172421 49 113 0.9 1.7 0.00 0.00 0.00 76 1017.7
20260508172406 49 113 0.9 1.7 0.00 0.00 0.00 76 1017.5
20260508172307 49 113 0.9 1.7 0.00 0.00 0.00 76 1017.7
20260508172106 49 113 0.9 0.9 0.00 0.00 0.00 76 1017.6
20260508172006 49 113 0.9 0.9 0.00 0.00 0.00 76 1017.7
20260508171905 49 113 0.9 0.9 0.00 0.00 0.00 76 1017.7
20260508171805 49 113 0.9 1.7 0.00 0.00 0.00 76 1017.8
20260508171705 49 113 0.9 1.7 0.00 0.00 0.00 76 1017.6
20260508171606 49 113 0.9 1.7 0.00 0.00 0.00 76 1017.6
20260508171506 49 113 0.9 1.7 0.00 0.00 0.00 76 1017.5
20260508171406 49 113 0.9 1.7 0.00 0.00 0.00 76 1017.6
20260508171317 49 113 0.9 1.7 0.00 0.00 0.00 76 1017.6
20260508171305 49 113 0.9 1.7 0.00 0.00 0.00 76 1017.7
20260508171220 49 113 0.9 1.7 0.00 0.00 0.00 76 1017.7
20260508171206 49 113 0.9 1.7 0.00 0.00 0.00 76 1017.4
20260508170905 49 113 0.0 1.7 0.00 0.00 0.00 76 1017.7
20260508170805 49 113 0.0 1.7 0.00 0.00 0.00 76 1017.3
20260508170704 49 114 0.0 1.7 0.00 0.00 0.00 76 1017.7
20260508170605 49 114 0.0 1.7 0.00 0.00 0.00 76 1017.8
20260508170505 49 113 0.0 0.9 0.00 0.00 0.00 76 1017.6
20260508170404 49 0 0.0 0.0 0.00 0.00 0.00 76 1017.6
20260508170303 49 0 0.0 0.0 0.00 0.00 0.00 76 1017.6
20260508170205 49 0 0.0 0.0 0.00 0.00 0.00 76 1017.7
20260508170105 49 0 0.0 0.0 0.00 0.00 0.00 76 1017.5
20260508170005 49 0 0.0 0.0 0.00 0.00 0.00 76 1017.7
20260508165919 49 0 0.0 0.0 0.00 0.00 0.00 76 1017.7
20260508165905 49 0 0.0 0.0 0.00 0.00 0.00 76 1017.6
20260508165805 50 0 0.0 0.0 0.00 0.00 0.00 76 1017.6
20260508165619 50 0 0.0 0.0 0.00 0.00 0.00 75 1017.5
20260508165505 50 0 0.0 0.0 0.00 0.00 0.00 75 1017.5
20260508165319 50 0 0.0 0.0 0.00 0.00 0.00 75 1017.4
20260508165307 50 0 0.0 0.0 0.00 0.00 0.00 75 1017.6
20260508165219 50 0 0.0 0.0 0.00 0.00 0.00 75 1017.6
20260508165205 50 0 0.0 0.0 0.00 0.00 0.00 75 1017.5
20260508164905 50 0 0.0 0.0 0.00 0.00 0.00 75 1017.6
20260508164805 50 0 0.0 0.0 0.00 0.00 0.00 75 1017.6
20260508164705 50 0 0.0 0.0 0.00 0.00 0.00 75 1017.7
20260508164604 50 0 0.0 0.0 0.00 0.00 0.00 75 1017.6
20260508164505 50 0 0.0 0.0 0.00 0.00 0.00 75 1017.5
20260508164404 50 0 0.0 0.0 0.00 0.00 0.00 75 1017.8
20260508164305 50 0 0.0 0.0 0.00 0.00 0.00 75 1017.5
20260508164205 50 0 0.0 0.0 0.00 0.00 0.00 75 1017.8
20260508164105 50 0 0.0 0.0 0.00 0.00 0.00 75 1017.5
20260508164005 50 0 0.0 0.0 0.00 0.00 0.00 75 1017.6
20260508163919 50 0 0.0 0.0 0.00 0.00 0.00 75 1017.6
20260508163904 50 0 0.0 0.0 0.00 0.00 0.00 75 1017.7
20260508163803 50 0 0.0 0.0 0.00 0.00 0.00 75 1017.7
20260508163605 50 0 0.0 0.0 0.00 0.00 0.00 75 1017.7
20260508163504 50 0 0.0 0.0 0.00 0.00 0.00 75 1017.6
20260508163418 50 0 0.0 0.0 0.00 0.00 0.00 75 1017.6
20260508163305 50 0 0.0 0.0 0.00 0.00 0.00 75 1017.7
20260508163217 50 0 0.0 0.0 0.00 0.00 0.00 75 1017.7
20260508163118 50 0 0.0 0.0 0.00 0.00 0.00 75 1017.7
20260508163104 50 0 0.0 0.0 0.00 0.00 0.00 75 1017.4
20260508163018 50 0 0.0 0.0 0.00 0.00 0.00 75 1017.4
20260508162705 50 113 0.0 0.9 0.00 0.00 0.00 75 1017.5
20260508162605 50 113 0.0 0.9 0.00 0.00 0.00 75 1017.6
20260508162504 50 113 0.0 0.9 0.00 0.00 0.00 75 1017.7
20260508162405 50 113 0.0 0.9 0.00 0.00 0.00 75 1017.7
20260508162307 50 113 0.0 0.9 0.00 0.00 0.00 75 1017.7
20260508162205 50 113 0.0 0.9 0.00 0.00 0.00 75 1017.4
20260508162105 50 113 0.9 0.9 0.00 0.00 0.00 75 1017.6
20260508162005 50 113 0.9 0.9 0.00 0.00 0.00 75 1017.7
20260508161906 50 113 0.9 0.9 0.00 0.00 0.00 75 1017.6
20260508161804 50 113 0.9 0.9 0.00 0.00 0.00 75 1017.5
20260508161704 50 113 0.0 0.9 0.00 0.00 0.00 75 1017.5
20260508161606 50 113 0.0 0.9 0.00 0.00 0.00 75 1017.4
20260508161505 50 113 0.0 0.9 0.00 0.00 0.00 75 1017.5
20260508161405 50 113 0.0 0.9 0.00 0.00 0.00 75 1017.4
20260508161305 50 113 0.0 0.9 0.00 0.00 0.00 75 1017.5
20260508161206 50 113 0.0 0.9 0.00 0.00 0.00 75 1017.3
20260508161105 50 113 0.0 0.9 0.00 0.00 0.00 75 1017.4
20260508161005 50 113 0.0 0.9 0.00 0.00 0.00 75 1017.6
20260508160905 50 113 0.0 0.9 0.00 0.00 0.00 75 1017.5
20260508160805 50 113 0.0 0.9 0.00 0.00 0.00 75 1017.5
20260508160705 50 113 0.0 0.9 0.00 0.00 0.00 75 1017.6
20260508160606 50 113 0.0 0.9 0.00 0.00 0.00 75 1017.5
20260508160504 50 113 0.0 0.9 0.00 0.00 0.00 75 1017.3
20260508160406 50 113 0.0 0.9 0.00 0.00 0.00 75 1017.4
20260508160304 50 113 0.0 0.9 0.00 0.00 0.00 75 1017.5
20260508160206 51 113 0.0 0.9 0.00 0.00 0.00 75 1017.5
20260508160106 51 113 0.0 0.9 0.00 0.00 0.00 75 1017.6
20260508160006 51 113 0.0 0.9 0.00 0.00 0.00 74 1017.6
20260508155905 51 113 0.0 0.9 0.00 0.00 0.00 74 1017.4
20260508155805 51 113 0.0 0.9 0.00 0.00 0.00 74 1017.5
20260508155706 51 113 0.0 0.9 0.00 0.00 0.00 74 1017.4
20260508155606 51 113 0.0 0.9 0.00 0.00 0.00 74 1017.4
20260508155504 51 113 0.0 0.9 0.00 0.00 0.00 74 1017.6
20260508155419 51 113 0.0 0.9 0.00 0.00 0.00 74 1017.6
20260508155406 51 113 0.0 0.9 0.00 0.00 0.00 74 1017.5
20260508155307 51 113 0.0 0.9 0.00 0.00 0.00 74 1017.3
20260508155105 51 113 0.0 0.9 0.00 0.00 0.00 74 1017.4
20260508155020 51 113 0.0 0.9 0.00 0.00 0.00 74 1017.4
20260508155006 51 113 0.0 0.9 0.00 0.00 0.00 74 1017.6
20260508154906 51 113 0.0 0.9 0.00 0.00 0.00 74 1017.4
20260508154706 51 113 0.0 0.9 0.00 0.00 0.00 74 1017.4
20260508154606 51 0 0.0 0.0 0.00 0.00 0.00 74 1017.6
20260508154505 51 0 0.0 0.0 0.00 0.00 0.00 74 1017.5
20260508154406 51 0 0.0 0.0 0.00 0.00 0.00 74 1017.4
20260508154305 51 113 0.0 0.9 0.00 0.00 0.00 74 1017.6
20260508154205 51 113 0.0 0.9 0.00 0.00 0.00 74 1017.4
20260508154120 51 113 0.0 0.9 0.00 0.00 0.00 74 1017.4
20260508154104 51 113 0.0 0.9 0.00 0.00 0.00 74 1017.5
20260508154020 51 113 0.0 0.9 0.00 0.00 0.00 74 1017.5
20260508154007 51 113 0.0 0.9 0.00 0.00 0.00 74 1017.6
20260508153706 51 113 0.0 0.9 0.00 0.00 0.00 74 1017.4
20260508153606 51 113 0.0 0.9 0.00 0.00 0.00 74 1017.3
20260508153506 51 113 0.0 0.9 0.00 0.00 0.00 74 1017.3
20260508153405 51 113 0.0 0.9 0.00 0.00 0.00 74 1017.5
20260508153206 51 113 0.9 0.9 0.00 0.00 0.00 74 1017.4
20260508153120 51 113 0.0 0.9 0.00 0.00 0.00 74 1017.4
20260508153106 51 113 0.0 0.9 0.00 0.00 0.00 74 1017.5
20260508153006 51 113 0.0 0.9 0.00 0.00 0.00 74 1017.6
20260508152805 51 113 0.0 1.7 0.00 0.00 0.00 74 1017.6
20260508152706 51 113 0.0 1.7 0.00 0.00 0.00 74 1017.5
20260508152506 51 113 0.0 1.7 0.00 0.00 0.00 74 1017.6
20260508152406 51 113 0.0 1.7 0.00 0.00 0.00 74 1017.2
20260508152320 51 113 0.0 1.7 0.00 0.00 0.00 74 1017.2
20260508152307 51 113 0.0 1.7 0.00 0.00 0.00 74 1017.6
20260508152205 51 113 0.0 1.7 0.00 0.00 0.00 73 1017.5
20260508152020 51 113 0.9 1.7 0.00 0.00 0.00 73 1017.6
20260508152005 51 113 0.9 1.7 0.00 0.00 0.00 73 1017.4
20260508151905 51 113 0.0 1.7 0.00 0.00 0.00 73 1017.4
20260508151706 51 112 0.0 1.7 0.00 0.00 0.00 73 1017.6
20260508151604 51 110 0.0 1.7 0.00 0.00 0.00 73 1017.6
20260508151506 51 109 0.0 1.7 0.00 0.00 0.00 73 1017.4
20260508151419 51 106 0.0 1.7 0.00 0.00 0.00 73 1017.4
20260508151406 51 106 0.0 1.7 0.00 0.00 0.00 73 1017.2
20260508151306 51 105 0.0 1.7 0.00 0.00 0.00 73 1017.5
20260508151105 51 97 0.0 1.7 0.00 0.00 0.00 73 1017.4
20260508151020 51 92 0.0 0.9 0.00 0.00 0.00 73 1017.4
20260508151006 51 92 0.0 0.9 0.00 0.00 0.00 73 1017.6
20260508150906 51 90 0.0 0.9 0.00 0.00 0.00 73 1017.5
20260508150706 51 87 0.0 0.9 0.00 0.00 0.00 73 1017.4
20260508150606 51 84 0.0 0.9 0.00 0.00 0.00 73 1017.6
20260508150519 51 83 0.0 0.9 0.00 0.00 0.00 73 1017.6
20260508150505 51 83 0.0 1.7 0.00 0.00 0.00 73 1017.4
20260508150404 51 83 0.0 1.7 0.00 0.00 0.00 73 1017.6
20260508150221 51 83 0.0 1.7 0.00 0.00 0.00 73 1017.3
20260508150206 51 83 0.0 1.7 0.00 0.00 0.00 73 1017.5
20260508150121 51 83 0.0 1.7 0.00 0.00 0.00 73 1017.5
20260508150106 51 83 0.0 1.7 0.00 0.00 0.00 73 1017.7
20260508145805 51 83 0.0 1.7 0.00 0.00 0.00 73 1017.4
20260508145706 51 83 0.0 1.7 0.00 0.00 0.00 73 1017.5
20260508145605 51 83 0.0 1.7 0.00 0.00 0.00 73 1017.7
20260508145505 51 83 0.0 1.7 0.00 0.00 0.00 73 1017.7
20260508145420 51 83 0.0 0.9 0.00 0.00 0.00 73 1017.7
20260508145405 51 83 0.0 0.9 0.00 0.00 0.00 73 1017.5
20260508145320 51 83 0.0 0.9 0.00 0.00 0.00 73 1017.5
20260508145307 51 83 0.0 0.9 0.00 0.00 0.00 73 1017.6
20260508145006 51 83 0.0 0.9 0.00 0.00 0.00 72 1017.6
20260508144919 51 83 0.0 0.9 0.00 0.00 0.00 72 1017.6
20260508144904 51 83 0.0 0.9 0.00 0.00 0.00 72 1017.4
20260508144806 51 83 0.0 0.9 0.00 0.00 0.00 72 1017.6
20260508144720 51 82 0.0 0.9 0.00 0.00 0.00 72 1017.6
20260508144606 51 0 0.0 0.0 0.00 0.00 0.00 72 1017.3
20260508144406 51 0 0.0 0.0 0.00 0.00 0.00 72 1017.5
20260508144320 51 0 0.0 0.0 0.00 0.00 0.00 72 1017.5
20260508144306 51 0 0.0 0.0 0.00 0.00 0.00 72 1017.6
20260508144205 51 0 0.0 0.0 0.00 0.00 0.00 72 1017.3
20260508144006 51 0 0.0 0.0 0.00 0.00 0.00 72 1017.5
20260508143906 52 0 0.0 0.0 0.00 0.00 0.00 72 1017.3
20260508143805 52 0 0.0 0.0 0.00 0.00 0.00 72 1017.3
20260508143704 51 0 0.0 0.0 0.00 0.00 0.00 72 1017.4
20260508143606 52 0 0.0 0.0 0.00 0.00 0.00 72 1017.3
20260508143506 52 0 0.0 0.0 0.00 0.00 0.00 72 1017.6
20260508143405 52 0 0.0 0.0 0.00 0.00 0.00 72 1017.4
20260508143305 52 0 0.0 0.0 0.00 0.00 0.00 72 1017.3
20260508143205 52 0 0.0 0.0 0.00 0.00 0.00 72 1017.4
20260508143121 52 0 0.0 0.0 0.00 0.00 0.00 72 1017.4
20260508143104 51 0 0.0 0.0 0.00 0.00 0.00 72 1017.4
20260508143007 52 0 0.0 0.0 0.00 0.00 0.00 72 1017.4
20260508142806 51 0 0.0 0.0 0.00 0.00 0.00 72 1017.3
20260508142705 51 0 0.0 0.0 0.00 0.00 0.00 72 1017.4
20260508142620 52 0 0.0 0.0 0.00 0.00 0.00 72 1017.4
20260508142605 52 0 0.0 0.0 0.00 0.00 0.00 72 1017.2
20260508142505 52 0 0.0 0.0 0.00 0.00 0.00 72 1017.3
20260508142419 52 0 0.0 0.0 0.00 0.00 0.00 72 1017.3
20260508142307 52 0 0.0 0.0 0.00 0.00 0.00 72 1017.2
20260508142105 52 0 0.0 0.0 0.00 0.00 0.00 71 1017.5
20260508142020 52 0 0.0 0.0 0.00 0.00 0.00 71 1017.5
20260508142006 52 0 0.0 0.0 0.00 0.00 0.00 71 1017.0
20260508141906 52 0 0.0 0.0 0.00 0.00 0.00 71 1017.1
20260508141706 52 0 0.0 0.0 0.00 0.00 0.00 71 1017.2
20260508141606 52 0 0.0 0.0 0.00 0.00 0.00 71 1017.2
20260508141521 52 0 0.0 0.0 0.00 0.00 0.00 71 1017.2
20260508141505 52 0 0.0 0.0 0.00 0.00 0.00 71 1017.3
20260508141405 52 0 0.0 0.0 0.00 0.00 0.00 71 1017.1
20260508141205 52 0 0.0 0.0 0.00 0.00 0.00 71 1017.3
20260508141106 52 0 0.0 0.0 0.00 0.00 0.00 71 1017.3
20260508141020 52 82 0.0 0.9 0.00 0.00 0.00 71 1017.3
20260508141006 52 82 0.0 0.9 0.00 0.00 0.00 71 1017.5
20260508140920 52 82 0.0 0.9 0.00 0.00 0.00 71 1017.5
20260508140906 52 82 0.0 0.9 0.00 0.00 0.00 71 1017.4
20260508140606 52 82 0.0 0.9 0.00 0.00 0.00 71 1017.4
20260508140505 52 82 0.0 0.9 0.00 0.00 0.00 71 1017.2
20260508140406 52 82 0.0 0.9 0.00 0.00 0.00 71 1017.3
20260508140306 52 82 0.0 0.9 0.00 0.00 0.00 71 1017.2
20260508140206 52 82 0.0 0.9 0.00 0.00 0.00 71 1017.3
20260508140121 52 82 0.0 0.9 0.00 0.00 0.00 71 1017.3
20260508140106 52 82 0.0 0.9 0.00 0.00 0.00 71 1017.2
20260508140005 52 82 0.0 0.9 0.00 0.00 0.00 71 1017.4
20260508135920 52 82 0.0 0.9 0.00 0.00 0.00 71 1017.4
20260508135806 52 82 0.0 0.9 0.00 0.00 0.00 70 1017.2
20260508135606 52 82 0.0 0.9 0.00 0.00 0.00 70 1017.2
20260508135504 52 82 0.0 0.9 0.00 0.00 0.00 70 1017.1
20260508135404 52 82 0.0 0.9 0.00 0.00 0.00 70 1017.2
20260508135306 52 82 0.0 0.9 0.00 0.00 0.00 70 1017.4
20260508135220 52 82 0.0 0.9 0.00 0.00 0.00 70 1017.4
20260508135205 52 82 0.0 0.9 0.00 0.00 0.00 70 1017.3
20260508135106 52 82 0.0 0.9 0.00 0.00 0.00 70 1017.1
20260508134906 52 0 0.0 0.0 0.00 0.00 0.00 70 1017.1
20260508134819 52 0 0.0 0.0 0.00 0.00 0.00 70 1017.1
20260508134804 52 0 0.0 0.0 0.00 0.00 0.00 70 1017.3
20260508134706 52 0 0.0 0.0 0.00 0.00 0.00 70 1017.1
20260508134620 52 0 0.0 0.0 0.00 0.00 0.00 70 1017.1
20260508134506 52 0 0.0 0.0 0.00 0.00 0.00 70 1017.1
20260508134306 53 0 0.0 0.0 0.00 0.00 0.00 70 1017.3
20260508134206 53 0 0.0 0.0 0.00 0.00 0.00 70 1017.2
20260508134106 53 0 0.0 0.0 0.00 0.00 0.00 70 1017.3
20260508134006 53 0 0.0 0.0 0.00 0.00 0.00 70 1017.1
20260508133907 53 0 0.0 0.0 0.00 0.00 0.00 70 1017.3
20260508133805 53 0 0.0 0.0 0.00 0.00 0.00 70 1017.3
20260508133706 53 0 0.0 0.0 0.00 0.00 0.00 70 1017.4
20260508133606 53 0 0.0 0.0 0.00 0.00 0.00 70 1017.1
20260508133520 53 0 0.0 0.0 0.00 0.00 0.00 70 1017.1
20260508133507 53 0 0.0 0.0 0.00 0.00 0.00 70 1017.2
20260508133405 53 0 0.0 0.0 0.00 0.00 0.00 70 1017.4
20260508133320 53 0 0.0 0.0 0.00 0.00 0.00 70 1017.4
20260508133206 53 0 0.0 0.0 0.00 0.00 0.00 70 1017.4
20260508133019 53 0 0.0 0.0 0.00 0.00 0.00 69 1017.4
20260508133006 53 0 0.0 0.0 0.00 0.00 0.00 69 1017.1
20260508132905 53 0 0.0 0.0 0.00 0.00 0.00 69 1017.3
20260508132706 53 0 0.0 0.0 0.00 0.00 0.00 69 1017.4
20260508132606 53 0 0.0 0.0 0.00 0.00 0.00 69 1017.3
20260508132507 53 0 0.0 0.0 0.00 0.00 0.00 69 1017.3
20260508132406 53 0 0.0 0.0 0.00 0.00 0.00 69 1017.3
20260508132320 53 0 0.0 0.0 0.00 0.00 0.00 69 1017.3
20260508132307 53 0 0.0 0.0 0.00 0.00 0.00 69 1017.2
20260508132206 53 0 0.0 0.0 0.00 0.00 0.00 69 1017.2
20260508132004 53 0 0.0 0.0 0.00 0.00 0.00 69 1017.4
20260508131906 53 0 0.0 0.0 0.00 0.00 0.00 69 1017.2
20260508131806 53 0 0.0 0.0 0.00 0.00 0.00 69 1017.2
20260508131706 53 0 0.0 0.0 0.00 0.00 0.00 69 1017.4
20260508131606 53 0 0.0 0.0 0.00 0.00 0.00 69 1017.6
20260508131505 53 0 0.0 0.0 0.00 0.00 0.00 69 1017.3
20260508131405 53 0 0.0 0.0 0.00 0.00 0.00 69 1017.4
20260508131306 53 0 0.0 0.0 0.00 0.00 0.00 69 1017.4
20260508131206 53 0 0.0 0.0 0.00 0.00 0.00 69 1017.4
20260508131105 53 0 0.0 0.0 0.00 0.00 0.00 69 1017.3
20260508131005 53 0 0.0 0.0 0.00 0.00 0.00 69 1017.3
20260508130920 53 0 0.0 0.0 0.00 0.00 0.00 69 1017.3
20260508130905 53 0 0.0 0.0 0.00 0.00 0.00 69 1017.5
20260508130806 53 0 0.0 0.0 0.00 0.00 0.00 69 1017.4
20260508130606 53 0 0.0 0.0 0.00 0.00 0.00 69 1017.5
20260508130506 53 0 0.0 0.0 0.00 0.00 0.00 68 1017.4
20260508130406 53 0 0.0 0.0 0.00 0.00 0.00 68 1017.3
20260508130305 53 0 0.0 0.0 0.00 0.00 0.00 68 1017.2
20260508130205 53 0 0.0 0.0 0.00 0.00 0.00 68 1017.2
20260508130107 53 0 0.0 0.0 0.00 0.00 0.00 68 1017.6
20260508125906 53 0 0.0 0.0 0.00 0.00 0.00 68 1017.5
20260508125821 53 0 0.0 0.0 0.00 0.00 0.00 68 1017.5
20260508125806 53 0 0.0 0.0 0.00 0.00 0.00 68 1017.3
20260508125721 53 0 0.0 0.0 0.00 0.00 0.00 68 1017.3
20260508125706 53 0 0.0 0.0 0.00 0.00 0.00 68 1017.4
20260508125406 54 0 0.0 0.0 0.00 0.00 0.00 68 1017.4
20260508125306 54 0 0.0 0.0 0.00 0.00 0.00 68 1017.3
20260508125205 54 0 0.0 0.0 0.00 0.00 0.00 68 1017.6
20260508125105 54 0 0.0 0.0 0.00 0.00 0.00 68 1017.3
20260508125006 54 0 0.0 0.0 0.00 0.00 0.00 68 1017.2
20260508124920 54 0 0.0 0.0 0.00 0.00 0.00 68 1017.2
20260508124906 54 0 0.0 0.0 0.00 0.00 0.00 68 1017.5
20260508124806 54 0 0.0 0.0 0.00 0.00 0.00 68 1017.4
20260508124606 54 0 0.0 0.0 0.00 0.00 0.00 67 1017.5
20260508124506 54 0 0.0 0.0 0.00 0.00 0.00 67 1017.1
20260508124406 54 0 0.0 0.0 0.00 0.00 0.00 67 1017.4
20260508124306 54 0 0.0 0.0 0.00 0.00 0.00 67 1017.3
20260508124206 54 0 0.0 0.0 0.00 0.00 0.00 67 1017.2
20260508124106 54 0 0.0 0.0 0.00 0.00 0.00 67 1017.3
20260508124006 54 83 0.0 0.9 0.00 0.00 0.00 67 1017.4
20260508123906 54 83 0.0 0.9 0.00 0.00 0.00 67 1017.3
20260508123806 54 83 0.0 0.9 0.00 0.00 0.00 67 1017.3
20260508123706 54 83 0.0 0.9 0.00 0.00 0.00 67 1017.2
20260508123605 54 83 0.0 0.9 0.00 0.00 0.00 67 1017.3
20260508123506 54 83 0.0 0.9 0.00 0.00 0.00 67 1017.3
20260508123406 54 83 0.0 0.9 0.00 0.00 0.00 67 1017.3
20260508123306 54 83 0.0 0.9 0.00 0.00 0.00 67 1017.3
20260508123205 54 83 0.0 0.9 0.00 0.00 0.00 67 1017.3
20260508123120 54 83 0.0 0.9 0.00 0.00 0.00 67 1017.3
20260508123106 54 83 0.0 0.9 0.00 0.00 0.00 67 1017.5
20260508122806 54 0 0.0 0.0 0.00 0.00 0.00 67 1017.4
20260508122706 54 0 0.0 0.0 0.00 0.00 0.00 67 1017.3
20260508122606 54 0 0.0 0.0 0.00 0.00 0.00 67 1017.4
20260508122506 54 0 0.0 0.0 0.00 0.00 0.00 66 1017.4
20260508122405 55 0 0.0 0.0 0.00 0.00 0.00 66 1017.4
20260508122307 55 82 0.0 0.9 0.00 0.00 0.00 66 1017.1
20260508122206 55 82 0.0 0.9 0.00 0.00 0.00 66 1017.2
20260508122106 55 82 0.0 0.9 0.00 0.00 0.00 66 1017.4
20260508122007 55 82 0.0 0.9 0.00 0.00 0.00 66 1017.4
20260508121905 55 82 0.0 0.9 0.00 0.00 0.00 66 1017.6
20260508121806 55 82 0.0 0.9 0.00 0.00 0.00 66 1017.4
20260508121705 55 82 0.0 0.9 0.00 0.00 0.00 66 1017.6
20260508121605 55 82 0.0 0.9 0.00 0.00 0.00 66 1017.1
20260508121505 55 82 0.0 0.9 0.00 0.00 0.00 66 1017.5
20260508121404 55 82 0.0 0.9 0.00 0.00 0.00 66 1017.5
20260508121306 55 83 0.0 0.9 0.00 0.00 0.00 66 1017.3
20260508121205 55 83 0.0 0.9 0.00 0.00 0.00 66 1017.6
20260508121105 55 83 0.0 0.9 0.00 0.00 0.00 66 1017.3
20260508121005 55 83 0.0 0.9 0.00 0.00 0.00 66 1017.4
20260508120907 55 83 0.0 0.9 0.00 0.00 0.00 66 1017.1
20260508120805 55 83 0.0 0.9 0.00 0.00 0.00 66 1017.3
20260508120706 55 83 0.0 0.9 0.00 0.00 0.00 66 1017.3
20260508120605 55 83 0.0 0.9 0.00 0.00 0.00 65 1017.3
20260508120520 55 83 0.0 0.9 0.00 0.00 0.00 65 1017.3
20260508120406 55 83 0.0 0.9 0.00 0.00 0.00 65 1017.2
20260508120321 55 83 0.0 0.9 0.00 0.00 0.00 65 1017.2
20260508120204 55 83 0.0 0.9 0.00 0.00 0.00 65 1017.2
20260508120021 55 83 0.0 0.9 0.00 0.00 0.00 65 1017.2
20260508115906 55 83 0.0 0.9 0.00 0.00 0.00 65 1017.2
20260508115706 55 83 0.0 0.9 0.00 0.00 0.00 65 1017.3
20260508115605 55 83 0.0 0.9 0.00 0.00 0.00 65 1017.3
20260508115506 55 83 0.0 0.9 0.00 0.00 0.00 65 1017.2
20260508115306 55 83 0.0 0.9 0.00 0.00 0.00 65 1017.0
20260508115205 55 83 0.0 0.9 0.00 0.00 0.00 65 1017.0
20260508115120 55 83 0.0 0.9 0.00 0.00 0.00 65 1017.0
20260508115105 55 83 0.0 0.9 0.00 0.00 0.00 65 1017.2
20260508115005 55 83 0.0 0.9 0.00 0.00 0.00 65 1017.0
20260508114820 55 83 0.0 0.9 0.00 0.00 0.00 65 1017.0
20260508114805 55 83 0.0 0.9 0.00 0.00 0.00 65 1016.9
20260508114706 55 83 0.0 0.9 0.00 0.00 0.00 65 1017.0
20260508114505 55 0 0.0 0.0 0.00 0.00 0.00 65 1016.9
20260508114420 55 0 0.0 0.0 0.00 0.00 0.00 65 1016.9
20260508114405 55 0 0.0 0.0 0.00 0.00 0.00 65 1016.8
20260508114306 55 83 0.0 0.9 0.00 0.00 0.00 65 1016.9
20260508114106 55 83 0.0 0.9 0.00 0.00 0.00 64 1017.0
20260508114019 55 83 0.0 0.9 0.00 0.00 0.00 64 1017.0
20260508114006 55 83 0.0 0.9 0.00 0.00 0.00 64 1016.9
20260508113906 55 83 0.0 0.9 0.00 0.00 0.00 64 1016.9
20260508113704 55 83 0.0 0.9 0.00 0.00 0.00 64 1016.9
20260508113605 55 83 0.0 0.9 0.00 0.00 0.00 64 1016.8
20260508113505 55 83 0.0 0.9 0.00 0.00 0.00 64 1017.0
20260508113406 55 83 0.0 0.9 0.00 0.00 0.00 64 1016.9
20260508113307 55 83 0.0 0.9 0.00 0.00 0.00 64 1016.8
20260508113206 55 0 0.0 0.0 0.00 0.00 0.00 64 1017.1
20260508113105 55 0 0.0 0.0 0.00 0.00 0.00 64 1016.9
20260508113021 55 0 0.0 0.0 0.00 0.00 0.00 64 1016.9
20260508113006 55 0 0.0 0.0 0.00 0.00 0.00 64 1016.7
20260508112906 55 0 0.0 0.0 0.00 0.00 0.00 64 1016.9
20260508112706 56 0 0.0 0.0 0.00 0.00 0.00 64 1017.0
20260508112606 56 0 0.0 0.0 0.00 0.00 0.00 64 1016.8
20260508112506 56 0 0.0 0.0 0.00 0.00 0.00 64 1016.8
20260508112404 56 0 0.0 0.0 0.00 0.00 0.00 64 1016.9
20260508112307 56 83 0.0 0.9 0.00 0.00 0.00 64 1016.9
20260508112206 56 83 0.0 0.9 0.00 0.00 0.00 64 1016.9
20260508112107 56 83 0.0 0.9 0.00 0.00 0.00 64 1016.8
20260508112006 56 83 0.0 0.9 0.00 0.00 0.00 64 1016.8
20260508111906 56 83 0.0 0.9 0.00 0.00 0.00 64 1016.7
20260508111806 56 83 0.0 0.9 0.00 0.00 0.00 63 1016.8
20260508111705 56 83 0.0 0.9 0.00 0.00 0.00 63 1016.6
20260508111606 56 83 0.0 1.7 0.00 0.00 0.00 63 1016.6
20260508111505 56 83 0.0 1.7 0.00 0.00 0.00 63 1016.5
20260508111405 56 83 0.0 1.7 0.00 0.00 0.00 63 1016.7
20260508111305 56 83 0.0 1.7 0.00 0.00 0.00 63 1016.7
20260508111206 56 83 0.0 1.7 0.00 0.00 0.00 63 1016.5
20260508111104 56 83 0.0 1.7 0.00 0.00 0.00 63 1016.6
20260508111006 56 83 0.9 1.7 0.00 0.00 0.00 63 1016.5
20260508110906 56 83 0.9 1.7 0.00 0.00 0.00 63 1016.6
20260508110806 56 83 0.9 1.7 0.00 0.00 0.00 63 1016.4
20260508110720 56 83 0.9 1.7 0.00 0.00 0.00 63 1016.4
20260508110706 56 83 0.9 1.7 0.00 0.00 0.00 63 1016.6
20260508110606 56 83 0.9 1.7 0.00 0.00 0.00 63 1016.4
20260508110521 56 83 0.9 1.7 0.00 0.00 0.00 63 1016.4
20260508110405 56 83 0.9 1.7 0.00 0.00 0.00 63 1016.5
20260508110222 56 83 0.9 1.7 0.00 0.00 0.00 63 1016.4
20260508110206 56 83 0.9 1.7 0.00 0.00 0.00 63 1016.3
20260508110106 56 83 0.9 1.7 0.00 0.00 0.00 63 1016.3
20260508105906 56 83 0.0 0.9 0.00 0.00 0.00 63 1016.4
20260508105806 56 83 0.0 0.9 0.00 0.00 0.00 63 1016.5
20260508105706 56 83 0.0 0.9 0.00 0.00 0.00 62 1016.0
20260508105621 56 83 0.0 0.9 0.00 0.00 0.00 62 1016.0
20260508105605 56 83 0.0 0.9 0.00 0.00 0.00 62 1016.3
20260508105506 56 83 0.0 0.9 0.00 0.00 0.00 62 1016.4
20260508105307 57 83 0.0 1.7 0.00 0.00 0.00 62 1016.2
20260508105206 57 84 0.0 2.6 0.00 0.00 0.00 62 1016.4
20260508105106 57 84 0.0 2.6 0.00 0.00 0.00 62 1016.5
20260508105006 57 84 0.0 2.6 0.00 0.00 0.00 62 1016.3
20260508104906 57 84 0.0 2.6 0.00 0.00 0.00 61 1016.2
20260508104805 57 84 0.0 2.6 0.00 0.00 0.00 61 1016.1
20260508104705 57 84 0.0 2.6 0.00 0.00 0.00 61 1016.4
20260508104606 57 85 0.0 2.6 0.00 0.00 0.00 61 1016.6
20260508104519 57 85 0.0 2.6 0.00 0.00 0.00 61 1016.6
20260508104505 57 85 0.0 2.6 0.00 0.00 0.00 61 1016.4
20260508104406 57 87 0.0 2.6 0.00 0.00 0.00 61 1016.4
20260508104206 57 97 0.0 0.9 0.00 0.00 0.00 61 1016.4
20260508104106 57 97 0.0 0.9 0.00 0.00 0.00 61 1016.3
20260508104006 57 97 0.0 0.9 0.00 0.00 0.00 61 1016.2
20260508103921 57 97 0.0 0.9 0.00 0.00 0.00 61 1016.2
20260508103906 57 97 0.0 0.9 0.00 0.00 0.00 61 1016.3
20260508103806 57 97 0.0 0.9 0.00 0.00 0.00 61 1016.4
20260508103606 57 97 0.0 0.9 0.00 0.00 0.00 61 1016.2
20260508103505 57 97 0.0 0.9 0.00 0.00 0.00 61 1016.1
20260508103406 57 97 0.0 0.9 0.00 0.00 0.00 61 1016.1
20260508103318 57 97 0.0 0.9 0.00 0.00 0.00 61 1016.1
20260508103305 57 97 0.0 0.9 0.00 0.00 0.00 61 1016.2
20260508103205 57 97 0.0 0.9 0.00 0.00 0.00 61 1016.3
20260508103005 57 97 0.0 0.9 0.00 0.00 0.00 61 1016.0
20260508102906 57 97 0.0 0.9 0.00 0.00 0.00 61 1016.2
20260508102807 57 97 0.0 0.9 0.00 0.00 0.00 61 1016.2
20260508102705 57 97 0.0 0.9 0.00 0.00 0.00 61 1016.1
20260508102621 57 97 0.0 0.9 0.00 0.00 0.00 61 1016.1
20260508102605 57 97 0.9 0.9 0.00 0.00 0.00 61 1016.3
20260508102505 57 97 0.9 0.9 0.00 0.00 0.00 61 1016.3
20260508102306 57 97 0.9 0.9 0.00 0.00 0.00 61 1016.2
20260508102206 57 97 0.9 0.9 0.00 0.00 0.00 61 1016.1
20260508102105 57 97 0.9 0.9 0.00 0.00 0.00 61 1016.3
20260508102004 57 97 0.9 0.9 0.00 0.00 0.00 60 1016.0
20260508101919 57 97 0.9 0.9 0.00 0.00 0.00 60 1016.0
20260508101906 57 97 0.9 0.9 0.00 0.00 0.00 60 1015.9
20260508101806 57 97 0.9 0.9 0.00 0.00 0.00 60 1016.2
20260508101606 57 97 0.9 0.9 0.00 0.00 0.00 60 1016.0
20260508101504 57 97 0.9 0.9 0.00 0.00 0.00 60 1016.1
20260508101405 57 97 0.0 0.9 0.00 0.00 0.00 60 1016.2
20260508101305 57 97 0.9 1.7 0.00 0.00 0.00 60 1015.9
20260508101205 57 94 0.9 1.7 0.00 0.00 0.00 60 1016.1
20260508101106 57 94 0.0 1.7 0.00 0.00 0.00 60 1016.1
20260508101020 57 94 0.0 1.7 0.00 0.00 0.00 60 1016.1
20260508101006 57 93 0.0 1.7 0.00 0.00 0.00 60 1016.0
20260508100905 57 91 0.0 1.7 0.00 0.00 0.00 60 1016.1
20260508100706 57 88 0.0 1.7 0.00 0.00 0.00 60 1016.2
20260508100606 57 87 0.0 1.7 0.00 0.00 0.00 60 1016.1
20260508100506 57 87 0.0 1.7 0.00 0.00 0.00 60 1016.1
20260508100406 57 84 0.0 1.7 0.00 0.00 0.00 60 1016.2
20260508100306 57 78 0.0 0.9 0.00 0.00 0.00 60 1016.2
20260508100205 57 78 0.0 0.9 0.00 0.00 0.00 60 1016.0
20260508100105 57 78 0.0 0.9 0.00 0.00 0.00 60 1016.0
20260508100006 57 78 0.0 0.9 0.00 0.00 0.00 60 1016.2
20260508095921 57 78 0.0 0.9 0.00 0.00 0.00 60 1016.2
20260508095904 57 78 0.0 0.9 0.00 0.00 0.00 60 1016.3
20260508095806 57 78 0.0 0.9 0.00 0.00 0.00 60 1016.0
20260508095604 57 78 0.0 1.7 0.00 0.00 0.00 60 1016.2
20260508095506 57 78 0.0 1.7 0.00 0.00 0.00 60 1016.1
20260508095406 57 78 0.0 1.7 0.00 0.00 0.00 60 1016.1
20260508095307 57 78 0.9 1.7 0.00 0.00 0.00 60 1016.1
20260508095206 57 78 0.9 1.7 0.00 0.00 0.00 60 1016.0
20260508095004 57 78 0.9 1.7 0.00 0.00 0.00 59 1016.0
20260508094906 57 78 0.9 1.7 0.00 0.00 0.00 59 1016.1
20260508094805 58 78 0.9 1.7 0.00 0.00 0.00 59 1016.1
20260508094706 58 78 0.0 1.7 0.00 0.00 0.00 59 1016.1
20260508094606 58 78 0.0 1.7 0.00 0.00 0.00 59 1016.2
20260508094505 58 77 0.0 1.7 0.00 0.00 0.00 59 1016.1
20260508094405 58 77 0.0 0.9 0.00 0.00 0.00 59 1016.2
20260508094305 58 77 0.0 0.9 0.00 0.00 0.00 59 1016.1
20260508094205 58 77 0.0 0.9 0.00 0.00 0.00 59 1016.2
20260508094105 58 77 0.0 0.9 0.00 0.00 0.00 59 1016.1
20260508094006 58 77 0.0 1.7 0.00 0.00 0.00 59 1016.0
20260508093906 58 77 0.9 1.7 0.00 0.00 0.00 59 1016.1
20260508093806 58 77 0.9 1.7 0.00 0.00 0.00 59 1016.1
20260508093706 58 77 0.9 1.7 0.00 0.00 0.00 59 1016.4
20260508093620 58 77 0.9 1.7 0.00 0.00 0.00 59 1016.4
20260508093607 58 77 0.9 1.7 0.00 0.00 0.00 59 1016.0
20260508093505 58 77 0.9 1.7 0.00 0.00 0.00 59 1016.0
20260508093306 58 77 0.9 1.7 0.00 0.00 0.00 59 1015.9
20260508093206 58 77 0.9 1.7 0.00 0.00 0.00 59 1015.9
20260508093106 58 77 0.0 1.7 0.00 0.00 0.00 59 1015.8
20260508093004 58 77 0.0 1.7 0.00 0.00 0.00 59 1015.8
20260508092906 58 77 0.0 0.9 0.00 0.00 0.00 59 1015.9
20260508092806 58 77 0.0 0.9 0.00 0.00 0.00 59 1015.9
20260508092705 58 77 0.0 0.9 0.00 0.00 0.00 59 1015.8
20260508092606 58 77 0.0 0.9 0.00 0.00 0.00 59 1015.9
20260508092506 58 77 0.0 0.9 0.00 0.00 0.00 59 1015.7
20260508092406 58 77 0.0 0.9 0.00 0.00 0.00 59 1015.9
20260508092320 58 77 0.0 0.9 0.00 0.00 0.00 59 1015.9
20260508092313 58 77 0.0 0.9 0.00 0.00 0.00 59 1015.7
20260508092205 58 77 0.0 0.9 0.00 0.00 0.00 59 1015.9
20260508092119 58 77 0.0 0.9 0.00 0.00 0.00 59 1015.9
20260508092006 58 77 0.0 0.9 0.00 0.00 0.00 59 1015.7
20260508091805 58 77 0.0 0.9 0.00 0.00 0.00 59 1015.7
20260508091706 58 76 0.0 0.9 0.00 0.00 0.00 59 1015.6
20260508091606 58 76 0.0 0.9 0.00 0.00 0.00 59 1015.5
20260508091505 58 76 0.0 1.7 0.00 0.00 0.00 59 1015.6
20260508091405 58 76 0.0 1.7 0.00 0.00 0.00 59 1015.8
20260508091306 58 77 0.0 1.7 0.00 0.00 0.00 59 1015.7
20260508091206 58 77 0.0 1.7 0.00 0.00 0.00 59 1015.3
20260508091106 58 79 0.0 1.7 0.00 0.00 0.00 59 1015.3
20260508091004 58 80 0.0 1.7 0.00 0.00 0.00 59 1015.4
20260508090904 58 83 0.0 1.7 0.00 0.00 0.00 58 1015.5
20260508090806 58 84 0.0 1.7 0.00 0.00 0.00 59 1015.5
20260508090706 58 88 0.0 1.7 0.00 0.00 0.00 59 1015.2
20260508090606 58 90 0.0 1.7 0.00 0.00 0.00 59 1015.3
20260508090506 58 91 0.0 1.7 0.00 0.00 0.00 58 1015.3
20260508090404 58 93 0.9 1.7 0.00 0.00 0.00 58 1015.2
20260508090320 58 94 0.9 1.7 0.00 0.00 0.00 58 1015.2
20260508090306 58 94 0.9 1.7 0.00 0.00 0.00 58 1015.3
20260508090206 58 95 0.9 1.7 0.00 0.00 0.00 58 1015.3
20260508090119 58 96 0.9 1.7 0.00 0.00 0.00 58 1015.3
20260508090006 58 97 0.9 1.7 0.00 0.00 0.00 58 1015.2
20260508085821 58 96 0.9 1.7 0.00 0.00 0.00 58 1015.2
20260508085806 58 96 0.9 1.7 0.00 0.00 0.00 58 1015.1
20260508085706 58 94 0.9 2.6 0.00 0.00 0.00 58 1015.3
20260508085506 58 96 0.9 2.6 0.00 0.00 0.00 58 1015.2
20260508085407 58 96 0.9 2.6 0.00 0.00 0.00 58 1015.4
20260508085307 58 96 0.9 2.6 0.00 0.00 0.00 58 1015.3
20260508085206 58 96 0.9 2.6 0.00 0.00 0.00 58 1015.3
20260508085106 58 96 0.9 2.6 0.00 0.00 0.00 58 1015.3
20260508085004 58 96 0.9 2.6 0.00 0.00 0.00 58 1015.3
20260508084805 58 100 0.9 2.6 0.00 0.00 0.00 58 1015.2
20260508084705 58 102 0.9 2.6 0.00 0.00 0.00 58 1015.3
20260508084605 59 104 0.9 1.7 0.00 0.00 0.00 58 1015.1
20260508084504 59 102 0.9 1.7 0.00 0.00 0.00 58 1015.6
20260508084406 59 102 0.9 1.7 0.00 0.00 0.00 58 1015.1
20260508084306 59 101 0.9 1.7 0.00 0.00 0.00 58 1015.3
20260508084206 59 98 0.9 1.7 0.00 0.00 0.00 58 1015.3
20260508084119 59 94 0.9 1.7 0.00 0.00 0.00 58 1015.3
20260508084106 59 94 0.9 1.7 0.00 0.00 0.00 58 1015.2
20260508084006 59 93 0.9 1.7 0.00 0.00 0.00 57 1015.4
20260508083806 59 90 0.9 1.7 0.00 0.00 0.00 57 1015.2
20260508083706 59 87 0.9 1.7 0.00 0.00 0.00 57 1015.3
20260508083605 59 81 0.9 1.7 0.00 0.00 0.00 57 1015.2
20260508083505 59 79 0.0 1.7 0.00 0.00 0.00 57 1015.3
20260508083407 59 78 0.0 1.7 0.00 0.00 0.00 57 1015.2
20260508083305 59 78 0.0 1.7 0.00 0.00 0.00 57 1015.3
20260508083204 59 79 0.0 1.7 0.00 0.00 0.00 57 1015.1
20260508083106 59 83 0.0 1.7 0.00 0.00 0.00 57 1015.2
20260508083006 59 82 0.0 1.7 0.00 0.00 0.00 57 1015.1
20260508082906 59 84 0.0 1.7 0.00 0.00 0.00 57 1015.0
20260508082806 59 86 0.0 3.5 0.00 0.00 0.00 57 1015.2
20260508082705 59 90 0.0 3.5 0.00 0.00 0.00 57 1015.0
20260508082606 59 92 0.0 3.5 0.00 0.00 0.00 57 1015.0
20260508082505 59 93 0.0 3.5 0.00 0.00 0.00 57 1015.0
20260508082406 59 94 0.0 3.5 0.00 0.00 0.00 56 1015.0
20260508082306 59 94 0.0 3.5 0.00 0.00 0.00 56 1015.0
20260508082206 59 95 0.0 3.5 0.00 0.00 0.00 56 1015.2
20260508082104 59 95 0.9 3.5 0.00 0.00 0.00 56 1015.0
20260508082006 60 94 0.9 3.5 0.00 0.00 0.00 56 1015.1
20260508081906 60 90 0.9 3.5 0.00 0.00 0.00 56 1014.9
20260508081805 60 90 0.9 2.6 0.00 0.00 0.00 56 1015.0
20260508081706 60 89 0.9 2.6 0.00 0.00 0.00 56 1014.9
20260508081605 60 90 0.9 2.6 0.00 0.00 0.00 56 1015.0
20260508081521 60 90 0.9 2.6 0.00 0.00 0.00 55 1015.0
20260508081506 60 90 0.9 2.6 0.00 0.00 0.00 55 1014.9
20260508081405 60 91 0.9 2.6 0.00 0.00 0.00 55 1014.8
20260508081206 60 92 0.9 2.6 0.00 0.00 0.00 55 1014.8
20260508081105 60 93 0.9 2.6 0.00 0.00 0.00 55 1014.8
20260508081004 60 94 0.9 2.6 0.00 0.00 0.00 55 1015.0
20260508080905 60 95 0.9 6.1 0.00 0.00 0.00 55 1014.8
20260508080804 60 91 0.9 6.1 0.00 0.00 0.00 55 1014.7
20260508080705 60 91 0.9 6.1 0.00 0.00 0.00 55 1014.8
20260508080606 60 91 0.9 6.1 0.00 0.00 0.00 55 1014.7
20260508080506 60 91 0.9 6.1 0.00 0.00 0.00 55 1014.8
20260508080405 60 87 0.9 6.1 0.00 0.00 0.00 55 1014.8
20260508080306 60 85 0.9 6.1 0.00 0.00 0.00 55 1014.7
20260508080206 60 85 0.9 6.1 0.00 0.00 0.00 54 1014.7
20260508080106 60 83 0.9 6.1 0.00 0.00 0.00 54 1014.4
20260508080022 60 83 0.9 6.1 0.00 0.00 0.00 54 1014.4
20260508080005 60 83 0.9 6.1 0.00 0.00 0.00 54 1014.6
20260508075907 60 80 0.9 3.5 0.00 0.00 0.00 54 1014.6
20260508075706 60 84 0.9 3.5 0.00 0.00 0.00 54 1014.5
20260508075618 60 83 0.9 3.5 0.00 0.00 0.00 54 1014.5
20260508075606 60 82 0.9 3.5 0.00 0.00 0.00 54 1014.6
20260508075506 60 81 0.9 3.5 0.00 0.00 0.00 54 1014.6
20260508075421 60 83 0.9 3.5 0.00 0.00 0.00 53 1014.6
20260508075308 60 84 0.9 3.5 0.00 0.00 0.00 53 1014.6
20260508075104 60 82 0.9 2.6 0.00 0.00 0.00 53 1014.6
20260508075005 60 83 0.9 2.6 0.00 0.00 0.00 53 1014.5
20260508074904 60 84 0.0 2.6 0.00 0.00 0.00 53 1014.6
20260508074805 61 88 0.0 2.6 0.00 0.00 0.00 53 1014.5
20260508074706 61 91 0.9 2.6 0.00 0.00 0.00 53 1014.6
20260508074606 61 94 0.0 2.6 0.00 0.00 0.00 53 1014.6
20260508074504 61 99 0.0 2.6 0.00 0.00 0.00 53 1014.6
20260508074404 61 101 0.9 3.5 0.00 0.00 0.00 52 1014.6
20260508074220 61 96 0.9 3.5 0.00 0.00 0.00 52 1014.6
20260508074206 61 96 0.9 3.5 0.00 0.00 0.00 52 1014.5
20260508074106 61 94 0.9 3.5 0.00 0.00 0.00 52 1014.5
20260508074021 61 93 0.9 3.5 0.00 0.00 0.00 52 1014.5
20260508073906 61 92 0.9 3.5 0.00 0.00 0.00 52 1014.4
20260508073706 61 89 0.9 3.5 0.00 0.00 0.00 51 1014.5
20260508073604 61 89 0.9 3.5 0.00 0.00 0.00 51 1014.5
20260508073504 61 88 0.9 3.5 0.00 0.00 0.00 51 1014.2
20260508073405 61 80 0.0 2.6 0.00 0.00 0.00 51 1014.4
20260508073319 61 79 0.0 1.7 0.00 0.00 0.00 51 1014.4
20260508073305 62 79 0.0 1.7 0.00 0.00 0.00 51 1014.4
20260508073205 62 81 0.0 3.5 0.00 0.00 0.00 51 1014.1
20260508073004 62 80 0.0 3.5 0.00 0.00 0.00 51 1014.2
20260508072920 62 73 0.9 3.5 0.00 0.00 0.00 50 1014.2
20260508072906 62 74 0.9 3.5 0.00 0.00 0.00 50 1014.2
20260508072804 62 78 0.9 6.1 0.00 0.00 0.00 51 1014.2
20260508072721 62 78 0.9 6.1 0.00 0.00 0.00 50 1014.2
20260508072606 62 78 0.9 6.1 0.00 0.00 0.00 50 1014.1
20260508072404 62 79 0.9 6.1 0.00 0.00 0.00 50 1014.2
20260508072307 62 79 0.9 6.1 0.00 0.00 0.00 50 1014.2
20260508072206 62 78 0.9 6.1 0.00 0.00 0.00 50 1014.1
20260508072105 62 77 0.9 6.1 0.00 0.00 0.00 49 1014.2
20260508072004 62 78 0.9 6.1 0.00 0.00 0.00 49 1014.2
20260508071905 62 87 0.0 6.1 0.00 0.00 0.00 50 1014.0
20260508071704 62 86 0.0 0.9 0.00 0.00 0.00 49 1014.0
20260508071605 62 85 0.0 0.9 0.00 0.00 0.00 49 1014.1
20260508071504 62 83 0.0 0.9 0.00 0.00 0.00 49 1014.0
20260508071404 62 83 0.0 0.9 0.00 0.00 0.00 49 1013.9
20260508071304 63 82 0.0 0.9 0.00 0.00 0.00 49 1014.0
20260508071206 63 82 0.0 0.9 0.00 0.00 0.00 49 1014.0
20260508071120 63 82 0.0 0.9 0.00 0.00 0.00 49 1014.0
20260508071105 63 82 0.0 0.9 0.00 0.00 0.00 49 1014.1
20260508071005 63 83 0.0 0.9 0.00 0.00 0.00 49 1014.1
20260508070706 63 83 0.0 0.9 0.00 0.00 0.00 49 1014.0
20260508070605 64 84 0.0 0.9 0.00 0.00 0.00 49 1013.9
20260508070520 64 85 0.0 0.9 0.00 0.00 0.00 49 1013.9
20260508070505 64 85 0.0 0.9 0.00 0.00 0.00 49 1014.0
20260508070406 64 85 0.0 0.9 0.00 0.00 0.00 49 1014.0
20260508070204 64 86 0.0 0.9 0.00 0.00 0.00 49 1014.0
20260508070120 64 86 0.0 0.9 0.00 0.00 0.00 49 1014.0
20260508070105 64 87 0.0 0.9 0.00 0.00 0.00 48 1013.8
20260508070005 64 87 0.0 0.9 0.00 0.00 0.00 48 1014.1
20260508065806 64 89 0.0 0.9 0.00 0.00 0.00 48 1013.7
20260508065705 65 89 0.0 0.9 0.00 0.00 0.00 48 1013.9
20260508065619 65 89 0.0 0.9 0.00 0.00 0.00 48 1013.9
20260508065606 65 89 0.0 0.9 0.00 0.00 0.00 48 1013.8
20260508065505 65 90 0.0 0.9 0.00 0.00 0.00 48 1014.0
20260508065307 65 90 0.0 0.9 0.00 0.00 0.00 48 1013.9
20260508065206 65 90 0.0 0.9 0.00 0.00 0.00 48 1013.9
20260508065106 65 90 0.0 0.9 0.00 0.00 0.00 48 1013.9
20260508065005 65 90 0.0 0.9 0.00 0.00 0.00 48 1014.0
20260508064905 65 90 0.0 0.9 0.00 0.00 0.00 48 1014.1
20260508064820 65 90 0.0 0.9 0.00 0.00 0.00 47 1014.1
20260508064805 65 90 0.0 0.9 0.00 0.00 0.00 47 1013.9
20260508064706 65 90 0.0 0.9 0.00 0.00 0.00 47 1013.9
20260508064405 65 90 0.0 1.7 0.00 0.00 0.00 47 1013.8
20260508064305 65 90 0.0 1.7 0.00 0.00 0.00 47 1013.7
20260508064205 65 90 0.9 1.7 0.00 0.00 0.00 47 1013.7
20260508064104 65 90 0.9 1.7 0.00 0.00 0.00 47 1013.8
20260508064006 65 90 0.9 1.7 0.00 0.00 0.00 47 1013.7
20260508063905 66 91 0.9 1.7 0.00 0.00 0.00 47 1013.8
20260508063820 66 91 0.9 1.7 0.00 0.00 0.00 47 1013.8
20260508063804 66 91 0.9 1.7 0.00 0.00 0.00 47 1013.6
20260508063721 66 92 0.9 1.7 0.00 0.00 0.00 47 1013.6
20260508063706 66 92 0.9 1.7 0.00 0.00 0.00 47 1013.9
20260508063406 66 94 0.9 1.7 0.00 0.00 0.00 47 1013.7
20260508063306 66 95 0.9 1.7 0.00 0.00 0.00 47 1013.7
20260508063206 66 96 0.9 1.7 0.00 0.00 0.00 47 1013.6
20260508063107 66 97 0.9 1.7 0.00 0.00 0.00 47 1013.7
20260508063004 66 97 0.9 1.7 0.00 0.00 0.00 47 1013.5
20260508062905 66 99 0.9 1.7 0.00 0.00 0.00 47 1013.5
20260508062820 66 99 0.9 1.7 0.00 0.00 0.00 47 1013.5
20260508062805 66 99 0.9 1.7 0.00 0.00 0.00 47 1013.6
20260508062706 66 99 0.9 1.7 0.00 0.00 0.00 47 1013.4
20260508062505 66 100 0.9 1.7 0.00 0.00 0.00 47 1013.4
20260508062405 66 100 0.9 1.7 0.00 0.00 0.00 47 1013.4
20260508062306 66 100 0.9 1.7 0.00 0.00 0.00 47 1013.3
20260508062219 66 100 0.9 1.7 0.00 0.00 0.00 47 1013.3
20260508062205 66 100 0.9 1.7 0.00 0.00 0.00 47 1013.4
20260508062106 66 100 0.9 1.7 0.00 0.00 0.00 47 1013.5
20260508061906 66 100 0.9 1.7 0.00 0.00 0.00 47 1013.4
20260508061806 66 101 0.0 1.7 0.00 0.00 0.00 47 1013.5
20260508061704 66 101 0.0 1.7 0.00 0.00 0.00 47 1013.5
20260508061606 66 101 0.0 0.9 0.00 0.00 0.00 47 1013.3
20260508061506 67 101 0.0 0.9 0.00 0.00 0.00 48 1013.4
20260508061406 67 101 0.0 0.9 0.00 0.00 0.00 47 1013.4
20260508061306 67 101 0.0 0.9 0.00 0.00 0.00 47 1013.3
20260508061206 67 101 0.0 0.9 0.00 0.00 0.00 47 1013.3
20260508061106 67 101 0.0 0.9 0.00 0.00 0.00 48 1013.5
20260508061006 67 101 0.0 0.9 0.00 0.00 0.00 48 1013.3
20260508060906 67 101 0.0 0.9 0.00 0.00 0.00 48 1013.5
20260508060804 67 101 0.0 0.9 0.00 0.00 0.00 47 1013.4
20260508060706 67 101 0.0 0.9 0.00 0.00 0.00 47 1013.4
20260508060605 67 101 0.0 0.9 0.00 0.00 0.00 47 1013.4
20260508060506 67 101 0.0 0.9 0.00 0.00 0.00 47 1013.4
20260508060406 67 101 0.0 0.9 0.00 0.00 0.00 47 1013.3
20260508060305 67 101 0.0 0.9 0.00 0.00 0.00 47 1013.5
20260508060206 67 101 0.0 0.9 0.00 0.00 0.00 47 1013.4
20260508060106 67 101 0.0 0.9 0.00 0.00 0.00 47 1013.4
20260508060006 67 101 0.0 1.7 0.00 0.00 0.00 47 1013.3
20260508055906 67 101 0.0 1.7 0.00 0.00 0.00 47 1013.5
20260508055820 67 101 0.0 1.7 0.00 0.00 0.00 47 1013.5
20260508055806 67 102 0.0 1.7 0.00 0.00 0.00 47 1013.4
20260508055706 67 102 0.0 1.7 0.00 0.00 0.00 47 1013.2
20260508055506 67 102 0.9 1.7 0.00 0.00 0.00 47 1013.5
20260508055405 67 102 0.9 1.7 0.00 0.00 0.00 47 1013.2
20260508055306 67 102 0.9 1.7 0.00 0.00 0.00 46 1013.3
20260508055205 67 102 0.9 1.7 0.00 0.00 0.00 46 1013.3
20260508055104 67 102 0.9 1.7 0.00 0.00 0.00 46 1013.4
20260508055006 67 103 0.0 1.7 0.00 0.00 0.00 46 1013.3
20260508054905 67 103 0.0 1.7 0.00 0.00 0.00 46 1013.3
20260508054804 67 103 0.0 1.7 0.00 0.00 0.00 47 1013.2
20260508054706 68 103 0.0 0.9 0.00 0.00 0.00 46 1013.4
20260508054606 68 103 0.0 0.9 0.00 0.00 0.00 46 1013.4
20260508054505 68 103 0.0 0.9 0.00 0.00 0.00 46 1013.6
20260508054418 68 103 0.0 0.9 0.00 0.00 0.00 46 1013.6
20260508054405 68 103 0.0 0.9 0.00 0.00 0.00 46 1013.4
20260508054305 68 103 0.0 0.9 0.00 0.00 0.00 46 1013.3
20260508054104 68 103 0.0 0.9 0.00 0.00 0.00 46 1013.3
20260508054005 68 103 0.0 0.9 0.00 0.00 0.00 46 1013.3
20260508053905 68 103 0.0 0.9 0.00 0.00 0.00 46 1013.1
20260508053820 68 103 0.0 1.7 0.00 0.00 0.00 46 1013.1
20260508053806 68 103 0.0 1.7 0.00 0.00 0.00 46 1013.2
20260508053706 68 102 0.0 1.7 0.00 0.00 0.00 46 1013.2
20260508053505 68 96 0.0 1.7 0.00 0.00 0.00 45 1013.3
20260508053405 68 88 0.0 1.7 0.00 0.00 0.00 46 1013.3
20260508053305 68 71 0.0 1.7 0.00 0.00 0.00 45 1013.3
20260508053206 68 7 0.9 1.7 0.00 0.00 0.00 45 1013.3
20260508053105 68 324 0.9 1.7 0.00 0.00 0.00 45 1013.5
20260508053005 68 309 0.9 1.7 0.00 0.00 0.00 45 1013.5
20260508052905 68 304 0.9 1.7 0.00 0.00 0.00 45 1013.6
20260508052805 68 301 0.9 1.7 0.00 0.00 0.00 45 1013.5
20260508052706 68 300 0.9 1.7 0.00 0.00 0.00 45 1013.2
20260508052606 68 300 0.9 1.7 0.00 0.00 0.00 45 1013.4
20260508052507 68 300 0.9 1.7 0.00 0.00 0.00 45 1013.2
20260508052406 68 300 0.9 1.7 0.00 0.00 0.00 45 1013.3
20260508052307 68 300 0.9 1.7 0.00 0.00 0.00 45 1013.3
20260508052205 68 300 0.9 3.5 0.00 0.00 0.00 45 1013.1
20260508052106 68 301 0.9 3.5 0.00 0.00 0.00 45 1013.2
20260508052006 68 302 0.9 3.5 0.00 0.00 0.00 45 1013.3
20260508051905 68 302 0.9 5.2 0.00 0.00 0.00 44 1013.2
20260508051806 68 304 0.9 5.2 0.00 0.00 0.00 44 1013.3
20260508051718 68 304 0.9 5.2 0.00 0.00 0.00 44 1013.3
20260508051705 68 304 0.9 5.2 0.00 0.00 0.00 44 1013.2
20260508051619 68 304 0.9 5.2 0.00 0.00 0.00 44 1013.2
20260508051605 68 305 0.9 5.2 0.00 0.00 0.00 44 1013.3
20260508051304 68 305 0.9 5.2 0.00 0.00 0.00 44 1013.4
20260508051204 68 306 0.9 5.2 0.00 0.00 0.00 44 1013.5
20260508051106 68 307 0.9 5.2 0.00 0.00 0.00 44 1013.3
20260508051006 68 306 0.9 5.2 0.00 0.00 0.00 45 1013.5
20260508050919 68 308 0.9 5.2 0.00 0.00 0.00 45 1013.5
20260508050906 68 309 0.9 3.5 0.00 0.00 0.00 45 1013.5
20260508050806 68 310 0.9 3.5 0.00 0.00 0.00 45 1013.4
20260508050605 68 313 0.9 3.5 0.00 0.00 0.00 44 1013.4
20260508050519 68 314 0.9 3.5 0.00 0.00 0.00 44 1013.4
20260508050504 68 315 0.9 3.5 0.00 0.00 0.00 44 1013.7
20260508050404 68 316 0.9 3.5 0.00 0.00 0.00 44 1013.4
20260508050205 68 318 0.9 3.5 0.00 0.00 0.00 44 1013.3
20260508050106 68 319 0.9 3.5 0.00 0.00 0.00 44 1013.3
20260508050005 68 323 0.9 3.5 0.00 0.00 0.00 44 1013.6
20260508045905 68 324 0.9 2.6 0.00 0.00 0.00 44 1013.4
20260508045804 68 324 0.9 2.6 0.00 0.00 0.00 44 1013.4
20260508045706 68 324 0.9 2.6 0.00 0.00 0.00 44 1013.5
20260508045606 68 324 0.9 2.6 0.00 0.00 0.00 44 1013.5
20260508045505 68 324 0.9 2.6 0.00 0.00 0.00 44 1013.5
20260508045420 68 324 0.9 2.6 0.00 0.00 0.00 44 1013.5
20260508045405 68 324 0.9 2.6 0.00 0.00 0.00 44 1013.4
20260508045307 68 324 0.9 2.6 0.00 0.00 0.00 44 1013.5
20260508045104 68 324 0.9 2.6 0.00 0.00 0.00 44 1013.5
20260508045005 68 325 0.9 2.6 0.00 0.00 0.00 44 1013.6
20260508044904 68 330 0.9 2.6 0.00 0.00 0.00 44 1013.4
20260508044805 68 334 0.9 2.6 0.00 0.00 0.00 44 1013.5
20260508044705 68 339 0.9 2.6 0.00 0.00 0.00 44 1013.3
20260508044620 68 339 0.9 2.6 0.00 0.00 0.00 44 1013.3
20260508044605 68 339 0.9 2.6 0.00 0.00 0.00 44 1013.4
20260508044506 68 337 0.9 2.6 0.00 0.00 0.00 44 1013.4
20260508044306 68 336 0.9 2.6 0.00 0.00 0.00 44 1013.5
20260508044205 68 336 0.9 2.6 0.00 0.00 0.00 44 1013.5
20260508044119 68 335 0.9 2.6 0.00 0.00 0.00 44 1013.5
20260508044106 68 334 0.9 2.6 0.00 0.00 0.00 44 1013.4
20260508044006 68 334 0.9 2.6 0.00 0.00 0.00 44 1013.6
20260508043819 68 325 0.9 2.6 0.00 0.00 0.00 44 1013.5
20260508043806 68 324 0.9 2.6 0.00 0.00 0.00 44 1013.5
20260508043706 68 316 0.9 2.6 0.00 0.00 0.00 44 1013.4
20260508043505 68 317 0.9 3.5 0.00 0.00 0.00 44 1013.4
20260508043404 68 317 0.9 3.5 0.00 0.00 0.00 43 1013.5
20260508043320 68 317 0.9 3.5 0.00 0.00 0.00 43 1013.5
20260508043305 68 317 0.9 3.5 0.00 0.00 0.00 43 1013.4
20260508043205 68 320 0.9 3.5 0.00 0.00 0.00 43 1013.7
20260508043005 68 329 0.9 3.5 0.00 0.00 0.00 43 1013.7
20260508042904 68 333 0.9 3.5 0.00 0.00 0.00 43 1013.6
20260508042821 68 335 0.9 3.5 0.00 0.00 0.00 43 1013.6
20260508042805 68 335 0.9 3.5 0.00 0.00 0.00 43 1013.6
20260508042720 68 333 0.9 3.5 0.00 0.00 0.00 43 1013.6
20260508042704 68 333 0.9 3.5 0.00 0.00 0.00 43 1013.5
20260508042519 68 341 0.9 2.6 0.00 0.00 0.00 43 1013.7
20260508042406 68 355 0.9 2.6 0.00 0.00 0.00 43 1013.6
20260508042221 68 10 0.9 2.6 0.00 0.00 0.00 42 1013.7
20260508042206 68 12 0.9 2.6 0.00 0.00 0.00 43 1013.5
20260508042107 68 8 0.9 3.5 0.00 0.00 0.00 44 1013.7
20260508041906 68 360 0.9 3.5 0.00 0.00 0.00 43 1013.6
20260508041804 68 357 0.9 3.5 0.00 0.00 0.00 43 1013.5
20260508041705 68 356 0.9 3.5 0.00 0.00 0.00 43 1013.8
20260508041604 68 360 0.9 3.5 0.00 0.00 0.00 43 1013.7
20260508041505 68 345 0.9 3.5 0.00 0.00 0.00 43 1013.8
20260508041405 68 335 0.9 3.5 0.00 0.00 0.00 43 1013.7
20260508041305 67 335 0.9 3.5 0.00 0.00 0.00 43 1013.7
20260508041205 67 333 0.9 3.5 0.00 0.00 0.00 43 1013.9
20260508041121 67 327 0.9 3.5 0.00 0.00 0.00 43 1013.9
20260508041105 67 325 0.9 2.6 0.00 0.00 0.00 43 1013.8
20260508041006 67 322 0.9 5.2 0.00 0.00 0.00 43 1013.9
20260508040805 67 309 1.7 5.2 0.00 0.00 0.00 43 1013.8
20260508040706 67 299 1.7 5.2 0.00 0.00 0.00 42 1013.7
20260508040606 67 292 1.7 5.2 0.00 0.00 0.00 42 1013.9
20260508040506 67 283 1.7 6.1 0.00 0.00 0.00 42 1014.0
20260508040406 67 272 1.7 6.1 0.00 0.00 0.00 42 1014.0
20260508040306 67 275 1.7 6.1 0.00 0.00 0.00 43 1013.8
20260508040121 67 283 1.7 6.1 0.00 0.00 0.00 42 1013.8
20260508040106 67 284 1.7 6.1 0.00 0.00 0.00 42 1013.9
20260508040006 67 284 2.6 6.1 0.00 0.00 0.00 42 1013.8
20260508035819 67 293 2.6 6.1 0.00 0.00 0.00 42 1014.0
20260508035806 67 296 2.6 7.0 0.00 0.00 0.00 42 1014.0
20260508035704 67 299 2.6 7.0 0.00 0.00 0.00 42 1014.0
20260508035506 67 315 2.6 7.0 0.00 0.00 0.00 43 1014.0
20260508035404 67 328 2.6 7.0 0.00 0.00 0.00 42 1014.0
20260508035318 67 328 2.6 7.0 0.00 0.00 0.00 43 1014.0
20260508035307 67 326 2.6 7.0 0.00 0.00 0.00 43 1013.7
20260508035205 67 321 2.6 7.0 0.00 0.00 0.00 43 1014.0
20260508035005 67 322 1.7 7.0 0.00 0.00 0.00 43 1014.1
20260508034905 67 326 1.7 7.0 0.00 0.00 0.00 44 1013.8
20260508034805 67 335 1.7 7.0 0.00 0.00 0.00 44 1013.8
20260508034705 67 344 1.7 5.2 0.00 0.00 0.00 44 1013.9
20260508034605 67 341 1.7 5.2 0.00 0.00 0.00 44 1014.0
20260508034506 67 337 1.7 5.2 0.00 0.00 0.00 44 1014.0
20260508034405 67 331 1.7 5.2 0.00 0.00 0.00 43 1014.0
20260508034305 67 327 0.9 5.2 0.00 0.00 0.00 43 1014.1
20260508034206 67 327 1.7 5.2 0.00 0.00 0.00 43 1014.2
20260508034119 67 334 1.7 5.2 0.00 0.00 0.00 43 1014.2
20260508034105 67 335 1.7 5.2 0.00 0.00 0.00 43 1013.9
20260508034004 67 338 1.7 5.2 0.00 0.00 0.00 43 1014.1
20260508033821 67 331 1.7 5.2 0.00 0.00 0.00 43 1014.0
20260508033804 67 328 1.7 5.2 0.00 0.00 0.00 43 1014.0
20260508033720 66 325 1.7 8.7 0.00 0.00 0.00 43 1014.0
20260508033705 66 324 1.7 8.7 0.00 0.00 0.00 43 1014.0
20260508033519 66 323 1.7 8.7 0.00 0.00 0.00 44 1014.1
20260508033405 66 324 1.7 8.7 0.00 0.00 0.00 43 1014.0
20260508033206 66 325 1.7 8.7 0.00 0.00 0.00 43 1014.0
20260508033121 66 323 1.7 8.7 0.00 0.00 0.00 43 1014.0
20260508033106 66 322 1.7 8.7 0.00 0.00 0.00 43 1014.3
20260508033006 66 320 1.7 8.7 0.00 0.00 0.00 43 1014.2
20260508032806 66 324 1.7 8.7 0.00 0.00 0.00 43 1014.2
20260508032706 66 325 1.7 6.1 0.00 0.00 0.00 43 1013.9
20260508032606 66 324 1.7 5.2 0.00 0.00 0.00 43 1014.1
20260508032520 66 324 1.7 6.1 0.00 0.00 0.00 43 1014.1
20260508032505 66 322 1.7 6.1 0.00 0.00 0.00 43 1014.3
20260508032405 66 321 1.7 6.1 0.00 0.00 0.00 43 1014.1
20260508032220 66 317 1.7 6.1 0.00 0.00 0.00 44 1014.3
20260508032206 66 317 1.7 6.1 0.00 0.00 0.00 44 1014.5
20260508032105 66 319 2.6 6.1 0.00 0.00 0.00 44 1014.4
20260508031906 66 320 2.6 6.1 0.00 0.00 0.00 44 1014.3
20260508031805 66 321 2.6 6.1 0.00 0.00 0.00 44 1014.4
20260508031704 66 320 2.6 6.1 0.00 0.00 0.00 44 1014.3
20260508031606 66 316 2.6 6.1 0.00 0.00 0.00 44 1014.4
20260508031505 66 318 1.7 6.1 0.00 0.00 0.00 44 1014.6
20260508031406 66 321 1.7 6.1 0.00 0.00 0.00 44 1014.5
20260508031305 66 327 1.7 6.1 0.00 0.00 0.00 44 1014.4
20260508031205 66 327 1.7 6.1 0.00 0.00 0.00 45 1014.7
20260508031105 66 331 1.7 3.5 0.00 0.00 0.00 45 1014.6
20260508031005 66 336 1.7 3.5 0.00 0.00 0.00 45 1014.5
20260508030905 66 335 1.7 3.5 0.00 0.00 0.00 44 1014.6
20260508030819 66 337 1.7 3.5 0.00 0.00 0.00 44 1014.6
20260508030806 66 338 1.7 3.5 0.00 0.00 0.00 44 1014.8
20260508030706 66 344 1.7 3.5 0.00 0.00 0.00 45 1014.5
20260508030505 66 350 1.7 3.5 0.00 0.00 0.00 44 1014.5
20260508030406 66 345 1.7 3.5 0.00 0.00 0.00 44 1014.7
20260508030306 66 341 1.7 3.5 0.00 0.00 0.00 44 1014.7
20260508030206 66 334 1.7 3.5 0.00 0.00 0.00 45 1014.6
20260508030105 66 325 1.7 3.5 0.00 0.00 0.00 44 1014.4
20260508030019 66 322 1.7 3.5 0.00 0.00 0.00 44 1014.4
20260508030006 66 321 1.7 3.5 0.00 0.00 0.00 44 1014.5
20260508025905 66 325 1.7 8.7 0.00 0.00 0.00 45 1014.5
20260508025706 65 321 1.7 8.7 0.00 0.00 0.00 44 1014.6
20260508025606 65 318 1.7 8.7 0.00 0.00 0.00 44 1014.7
20260508025506 65 319 1.7 8.7 0.00 0.00 0.00 44 1014.6
20260508025421 65 322 1.7 8.7 0.00 0.00 0.00 44 1014.6
20260508025406 65 323 1.7 8.7 0.00 0.00 0.00 44 1014.5
20260508025306 65 324 1.7 8.7 0.00 0.00 0.00 44 1014.7
20260508025119 65 329 1.7 8.7 0.00 0.00 0.00 44 1014.8
20260508025105 65 330 1.7 8.7 0.00 0.00 0.00 44 1015.0
20260508025006 65 327 2.6 8.7 0.00 0.00 0.00 45 1014.8
20260508024805 65 317 2.6 7.0 0.00 0.00 0.00 44 1014.8
20260508024705 65 311 2.6 7.0 0.00 0.00 0.00 44 1014.8
20260508024604 65 305 2.6 7.0 0.00 0.00 0.00 44 1014.9
20260508024505 65 302 2.6 7.0 0.00 0.00 0.00 44 1014.8
20260508024405 65 300 2.6 7.0 0.00 0.00 0.00 43 1015.0
20260508024306 65 299 2.6 7.0 0.00 0.00 0.00 43 1015.0
20260508024206 65 297 2.6 7.0 0.00 0.00 0.00 44 1015.0
20260508024104 65 297 2.6 7.0 0.00 0.00 0.00 44 1015.1
20260508024006 65 301 2.6 7.0 0.00 0.00 0.00 45 1015.1
20260508023904 65 305 2.6 7.0 0.00 0.00 0.00 44 1014.9
20260508023804 65 306 2.6 7.0 0.00 0.00 0.00 45 1014.8
20260508023705 65 314 2.6 7.0 0.00 0.00 0.00 45 1014.9
20260508023606 65 320 2.6 7.0 0.00 0.00 0.00 45 1014.9
20260508023506 65 328 1.7 7.0 0.00 0.00 0.00 45 1015.1
20260508023421 65 333 1.7 7.0 0.00 0.00 0.00 45 1015.1
20260508023406 65 335 1.7 7.0 0.00 0.00 0.00 45 1014.8
20260508023304 65 335 1.7 7.0 0.00 0.00 0.00 45 1015.0
20260508023105 65 327 1.7 7.0 0.00 0.00 0.00 45 1014.9
20260508023019 65 324 1.7 7.0 0.00 0.00 0.00 45 1014.9
20260508023006 65 324 1.7 6.1 0.00 0.00 0.00 45 1015.1
20260508022905 65 320 1.7 5.2 0.00 0.00 0.00 45 1014.8
20260508022818 65 318 1.7 5.2 0.00 0.00 0.00 45 1014.8
20260508022705 64 314 1.7 5.2 0.00 0.00 0.00 45 1015.2
20260508022505 64 309 1.7 6.1 0.00 0.00 0.00 45 1015.4